FW0869 Weather Reports


Display with metric or nautical units.
time (UTC)temp
F
wind
direction
speed
MPH
gust
MPH
rain 1hr
in
rain 24hr
in
rain mn
in
humidity
%
barometer
mb
20260906234849 86 9 9.0 16.0 0.00 0.00 0.00 33 1018.0
20260906234753 86 309 9.0 16.0 0.00 0.00 0.00 34 1018.1
20260906234626 86 350 9.0 15.0 0.00 0.00 0.00 34 1018.0
20260906234547 86 298 9.0 15.0 0.00 0.00 0.00 34 1018.0
20260906234446 86 343 9.0 17.0 0.00 0.00 0.00 35 1018.0
20260906234348 86 10 9.0 17.0 0.00 0.00 0.00 35 1018.0
20260906234140 86 244 9.0 17.0 0.00 0.00 0.00 35 1018.0
20260906234120 86 309 8.0 17.0 0.00 0.00 0.00 35 1018.0
20260906234040 87 312 9.0 17.0 0.00 0.00 0.00 34 1018.0
20260906233940 87 0 8.0 17.0 0.00 0.00 0.00 35 1018.0
20260906233842 87 333 8.0 17.0 0.00 0.00 0.00 35 1018.0
20260906233635 87 311 8.0 17.0 0.00 0.00 0.00 34 1018.1
20260906233614 87 333 8.0 17.0 0.00 0.00 0.00 34 1018.1
20260906233535 87 314 8.0 17.0 0.00 0.00 0.00 34 1018.1
20260906233434 87 331 7.0 14.0 0.00 0.00 0.00 35 1018.0
20260906233329 87 327 8.0 14.0 0.00 0.00 0.00 35 1018.0
20260906233229 87 348 8.0 14.0 0.00 0.00 0.00 34 1018.0
20260906233140 87 312 8.0 14.0 0.00 0.00 0.00 34 1018.0
20260906233134 87 342 8.0 14.0 0.00 0.00 0.00 34 1018.0
20260906232928 87 348 8.0 14.0 0.00 0.00 0.00 34 1018.0
20260906232829 87 304 8.0 14.0 0.00 0.00 0.00 34 1018.0
20260906232623 87 355 9.0 19.0 0.00 0.00 0.00 34 1018.0
20260906232601 87 293 9.0 19.0 0.00 0.00 0.00 34 1018.0
20260906232523 87 34 9.0 19.0 0.00 0.00 0.00 35 1018.1
20260906232422 87 326 9.0 19.0 0.00 0.00 0.00 34 1018.0
20260906232317 87 0 10.0 19.0 0.00 0.00 0.00 34 1018.1
20260906232217 87 309 10.0 19.0 0.00 0.00 0.00 33 1018.1
20260906232116 87 355 10.0 19.0 0.00 0.00 0.00 33 1018.1
20260906232056 87 0 10.0 19.0 0.00 0.00 0.00 33 1018.1
20260906232017 87 296 11.0 19.0 0.00 0.00 0.00 33 1018.1
20260906231919 87 313 11.0 19.0 0.00 0.00 0.00 33 1018.1
20260906231713 87 322 11.0 19.0 0.00 0.00 0.00 34 1018.3
20260906231656 87 331 11.0 19.0 0.00 0.00 0.00 34 1018.3
20260906231517 87 0 11.0 19.0 0.00 0.00 0.00 33 1018.3
20260906231306 88 355 10.0 19.0 0.00 0.00 0.00 34 1018.3
20260906231211 88 282 9.0 19.0 0.00 0.00 0.00 33 1018.1
20260906231044 88 306 9.0 17.0 0.00 0.00 0.00 33 1018.3
20260906231005 88 321 8.0 17.0 0.00 0.00 0.00 33 1018.3
20260906230904 88 341 9.0 17.0 0.00 0.00 0.00 33 1018.3
20260906230800 88 355 8.0 17.0 0.00 0.00 0.00 33 1018.1
20260906230700 88 334 8.0 17.0 0.00 0.00 0.00 33 1018.1
20260906230558 89 291 8.0 17.0 0.00 0.00 0.00 33 1018.1
20260906230537 89 319 8.0 17.0 0.00 0.00 0.00 33 1018.1
20260906230458 89 327 8.0 17.0 0.00 0.00 0.00 34 1018.1
20260906230359 89 30 8.0 16.0 0.00 0.00 0.00 34 1018.1
20260906230153 89 319 8.0 16.0 0.00 0.00 0.00 32 1018.1
20260906230053 89 303 8.0 16.0 0.00 0.00 0.00 33 1018.1
20260906230031 89 313 8.0 16.0 0.00 0.00 0.00 33 1018.1
20260906225952 89 19 8.0 16.0 0.00 0.00 0.00 33 1018.1
20260906225852 89 5 7.0 16.0 0.00 0.00 0.00 34 1018.1
20260906225747 89 340 7.0 16.0 0.00 0.00 0.00 33 1018.3
20260906225646 89 41 7.0 16.0 0.00 0.00 0.00 34 1018.3
20260906225547 89 5 6.0 14.0 0.00 0.00 0.00 33 1018.3
20260906225525 89 0 6.0 14.0 0.00 0.00 0.00 33 1018.1
20260906225447 90 22 6.0 14.0 0.00 0.00 0.00 33 1018.1
20260906225346 90 5 5.0 12.0 0.00 0.00 0.00 32 1018.1
20260906225240 90 283 5.0 12.0 0.00 0.00 0.00 32 1018.1
20260906225159 90 355 5.0 12.0 0.00 0.00 0.00 32 1018.1
20260906225045 90 355 5.0 12.0 0.00 0.00 0.00 32 1018.3
20260906224840 90 20 5.0 12.0 0.00 0.00 0.00 33 1018.3
20260906224735 90 299 5.0 10.0 0.00 0.00 0.00 32 1018.3
20260906224634 90 311 5.0 11.0 0.00 0.00 0.00 31 1018.3
20260906224534 90 317 4.0 11.0 0.00 0.00 0.00 31 1018.3
20260906224514 90 323 4.0 11.0 0.00 0.00 0.00 31 1018.3
20260906224435 90 321 5.0 11.0 0.00 0.00 0.00 32 1018.3
20260906224334 90 350 4.0 11.0 0.00 0.00 0.00 32 1018.3
20260906224231 90 308 4.0 11.0 0.00 0.00 0.00 33 1018.3
20260906224128 90 350 4.0 11.0 0.00 0.00 0.00 31 1018.3
20260906224028 90 338 3.0 11.0 0.00 0.00 0.00 32 1018.3
20260906224008 90 304 3.0 11.0 0.00 0.00 0.00 32 1018.3
20260906223929 90 315 3.0 11.0 0.00 0.00 0.00 31 1018.3
20260906223830 90 328 3.0 11.0 0.00 0.00 0.00 31 1018.3
20260906223623 90 350 3.0 8.0 0.00 0.00 0.00 32 1018.3
20260906223522 90 16 3.0 8.0 0.00 0.00 0.00 32 1018.3
20260906223502 90 24 3.0 8.0 0.00 0.00 0.00 32 1018.3
20260906223429 90 331 3.0 8.0 0.00 0.00 0.00 32 1018.3
20260906223219 90 333 3.0 6.0 0.00 0.00 0.00 34 1018.3
20260906223126 90 355 3.0 6.0 0.00 0.00 0.00 33 1018.3
20260906222956 90 60 3.0 8.0 0.00 0.00 0.00 33 1018.4
20260906222918 90 41 3.0 8.0 0.00 0.00 0.00 33 1018.4
20260906222817 90 63 3.0 8.0 0.00 0.00 0.00 33 1018.4
20260906222717 90 20 3.0 8.0 0.00 0.00 0.00 33 1018.4
20260906222510 90 47 4.0 11.0 0.00 0.00 0.00 33 1018.5
20260906222450 90 47 4.0 13.0 0.00 0.00 0.00 33 1018.5
20260906222411 90 55 4.0 13.0 0.00 0.00 0.00 34 1018.4
20260906222311 90 335 5.0 13.0 0.00 0.00 0.00 33 1018.5
20260906222105 89 26 5.0 13.0 0.00 0.00 0.00 33 1018.4
20260906222016 89 76 5.0 13.0 0.00 0.00 0.00 32 1018.5
20260906222009 89 160 6.0 13.0 0.00 0.00 0.00 32 1018.5
20260906221804 89 112 6.0 13.0 0.00 0.00 0.00 32 1018.5
20260906221713 90 39 7.0 13.0 0.00 0.00 0.00 32 1018.6
20260906221438 90 15 6.0 13.0 0.00 0.00 0.00 34 1018.6
20260906221359 90 0 5.0 13.0 0.00 0.00 0.00 33 1018.6
20260906221258 90 35 5.0 13.0 0.00 0.00 0.00 32 1018.6
20260906221159 90 44 4.0 13.0 0.00 0.00 0.00 33 1018.6
20260906220952 90 46 4.0 10.0 0.00 0.00 0.00 33 1018.6
20260906220932 90 61 4.0 10.0 0.00 0.00 0.00 33 1018.6
20260906220852 90 34 4.0 10.0 0.00 0.00 0.00 32 1018.6
20260906220752 90 55 4.0 10.0 0.00 0.00 0.00 34 1018.7
20260906220702 90 22 3.0 9.0 0.00 0.00 0.00 34 1018.6
20260906220426 90 296 3.0 8.0 0.00 0.00 0.00 32 1018.7
20260906220349 90 47 3.0 8.0 0.00 0.00 0.00 35 1018.7
20260906220249 90 55 3.0 8.0 0.00 0.00 0.00 32 1018.7
20260906220042 90 331 3.0 8.0 0.00 0.00 0.00 32 1018.7
20260906215920 90 36 3.0 11.0 0.00 0.00 0.00 32 1018.8
20260906215842 90 36 3.0 11.0 0.00 0.00 0.00 32 1018.8
20260906215740 90 49 3.0 11.0 0.00 0.00 0.00 33 1018.8
20260906215634 90 25 3.0 11.0 0.00 0.00 0.00 32 1018.8
20260906215534 90 41 3.0 11.0 0.00 0.00 0.00 31 1018.8
20260906215414 90 27 3.0 11.0 0.00 0.00 0.00 32 1019.0
20260906215335 90 72 4.0 11.0 0.00 0.00 0.00 33 1018.8
20260906215234 90 36 4.0 11.0 0.00 0.00 0.00 32 1018.8
20260906215132 90 28 4.0 11.0 0.00 0.00 0.00 32 1018.8
20260906215033 90 52 4.0 11.0 0.00 0.00 0.00 32 1018.8
20260906214932 90 76 4.0 10.0 0.00 0.00 0.00 33 1018.8
20260906214908 90 34 4.0 10.0 0.00 0.00 0.00 33 1018.8
20260906214830 90 344 5.0 10.0 0.00 0.00 0.00 33 1018.8
20260906214729 90 340 5.0 12.0 0.00 0.00 0.00 34 1018.8
20260906214623 90 348 5.0 12.0 0.00 0.00 0.00 34 1018.8
20260906214523 89 323 5.0 12.0 0.00 0.00 0.00 33 1019.0
20260906214422 89 67 5.0 12.0 0.00 0.00 0.00 33 1019.0
20260906214402 89 117 5.0 12.0 0.00 0.00 0.00 32 1019.0
20260906214323 89 101 6.0 12.0 0.00 0.00 0.00 33 1019.0
20260906214222 89 86 6.0 12.0 0.00 0.00 0.00 33 1019.0
20260906214117 89 43 6.0 12.0 0.00 0.00 0.00 32 1019.1
20260906214016 89 40 6.0 12.0 0.00 0.00 0.00 32 1019.1
20260906213927 90 53 7.0 12.0 0.00 0.00 0.00 32 1019.1
20260906213920 90 32 7.0 12.0 0.00 0.00 0.00 31 1019.1
20260906213718 90 44 6.0 11.0 0.00 0.00 0.00 34 1019.1
20260906213510 90 57 6.0 11.0 0.00 0.00 0.00 33 1019.1
20260906213410 90 322 6.0 11.0 0.00 0.00 0.00 33 1019.1
20260906213350 90 5 6.0 11.0 0.00 0.00 0.00 33 1019.1
20260906213311 90 355 6.0 11.0 0.00 0.00 0.00 33 1019.1
20260906213213 90 54 5.0 11.0 0.00 0.00 0.00 33 1019.2
20260906213007 89 28 5.0 11.0 0.00 0.00 0.00 32 1019.2
20260906212907 89 50 4.0 10.0 0.00 0.00 0.00 33 1019.2
20260906212849 89 71 4.0 10.0 0.00 0.00 0.00 33 1019.2
20260906212811 89 15 4.0 10.0 0.00 0.00 0.00 33 1019.2
20260906212601 89 345 5.0 10.0 0.00 0.00 0.00 34 1019.3
20260906212459 89 337 5.0 11.0 0.00 0.00 0.00 35 1019.3
20260906212359 89 5 5.0 11.0 0.00 0.00 0.00 34 1019.3
20260906212350 89 331 5.0 11.0 0.00 0.00 0.00 34 1019.3
20260906212258 89 28 5.0 11.0 0.00 0.00 0.00 33 1019.3
20260906212158 89 82 4.0 11.0 0.00 0.00 0.00 33 1019.3
20260906212052 89 24 4.0 11.0 0.00 0.00 0.00 32 1019.4
20260906212004 89 36 4.0 11.0 0.00 0.00 0.00 33 1019.4
20260906211853 89 0 4.0 11.0 0.00 0.00 0.00 32 1019.4
20260906211752 89 28 4.0 11.0 0.00 0.00 0.00 32 1019.4
20260906211652 90 5 4.0 11.0 0.00 0.00 0.00 34 1019.4
20260906211549 89 20 4.0 11.0 0.00 0.00 0.00 32 1019.6
20260906211458 89 294 3.0 8.0 0.00 0.00 0.00 35 1019.4
20260906211451 89 355 3.0 8.0 0.00 0.00 0.00 33 1019.6
20260906211247 89 57 4.0 8.0 0.00 0.00 0.00 33 1019.6
20260906211146 89 44 4.0 10.0 0.00 0.00 0.00 33 1019.4
20260906211040 89 5 5.0 10.0 0.00 0.00 0.00 33 1019.6
20260906210940 89 62 5.0 10.0 0.00 0.00 0.00 32 1019.7
20260906210852 89 80 5.0 10.0 0.00 0.00 0.00 32 1019.7
20260906210848 89 80 5.0 10.0 0.00 0.00 0.00 32 1019.6
20260906210641 89 30 5.0 10.0 0.00 0.00 0.00 33 1019.7
20260906210534 89 63 4.0 10.0 0.00 0.00 0.00 32 1019.7
20260906210434 89 66 4.0 10.0 0.00 0.00 0.00 34 1019.8
20260906210347 89 60 4.0 10.0 0.00 0.00 0.00 32 1019.8
20260906210334 89 96 4.0 10.0 0.00 0.00 0.00 32 1019.8
20260906210235 89 49 4.0 10.0 0.00 0.00 0.00 31 1019.8
20260906210134 89 67 4.0 10.0 0.00 0.00 0.00 32 1019.8
20260906210029 89 93 4.0 10.0 0.00 0.00 0.00 31 1019.8
20260906205928 89 103 4.0 10.0 0.00 0.00 0.00 32 1019.8
20260906205848 89 51 4.0 10.0 0.00 0.00 0.00 33 1019.8
20260906205828 89 68 4.0 10.0 0.00 0.00 0.00 33 1019.8
20260906205736 89 105 4.0 9.0 0.00 0.00 0.00 32 1019.7
20260906205528 89 171 4.0 9.0 0.00 0.00 0.00 32 1019.8
20260906205438 89 46 4.0 9.0 0.00 0.00 0.00 34 1019.8
20260906205431 89 44 4.0 9.0 0.00 0.00 0.00 32 1019.8
20260906205224 89 93 4.0 9.0 0.00 0.00 0.00 31 1019.9
20260906205122 89 87 4.0 9.0 0.00 0.00 0.00 31 1019.9
20260906205019 89 102 4.0 9.0 0.00 0.00 0.00 32 1019.9
20260906204954 89 58 4.0 10.0 0.00 0.00 0.00 32 1019.9
20260906204816 89 65 4.0 12.0 0.00 0.00 0.00 33 1019.9
20260906204716 89 342 4.0 12.0 0.00 0.00 0.00 34 1019.9
20260906204616 89 67 5.0 12.0 0.00 0.00 0.00 34 1019.9
20260906204510 89 49 5.0 12.0 0.00 0.00 0.00 32 1019.9
20260906204410 89 27 5.0 12.0 0.00 0.00 0.00 31 1020.0
20260906204348 89 70 5.0 12.0 0.00 0.00 0.00 31 1020.0
20260906204311 89 60 5.0 12.0 0.00 0.00 0.00 31 1020.0
20260906204217 89 67 5.0 12.0 0.00 0.00 0.00 31 1020.0
20260906204004 89 86 5.0 12.0 0.00 0.00 0.00 32 1020.0
20260906203905 88 86 5.0 12.0 0.00 0.00 0.00 32 1020.2
20260906203848 88 88 5.0 12.0 0.00 0.00 0.00 32 1020.2
20260906203812 88 69 5.0 12.0 0.00 0.00 0.00 31 1020.2
20260906203604 88 52 5.0 12.0 0.00 0.00 0.00 32 1020.2
20260906203458 88 33 6.0 12.0 0.00 0.00 0.00 33 1020.2
20260906203359 88 68 5.0 12.0 0.00 0.00 0.00 32 1020.2
20260906203348 88 67 5.0 12.0 0.00 0.00 0.00 32 1020.2
20260906203304 88 59 5.0 11.0 0.00 0.00 0.00 33 1020.2
20260906203056 88 107 5.0 11.0 0.00 0.00 0.00 33 1020.2
20260906202959 88 99 5.0 11.0 0.00 0.00 0.00 33 1020.2
20260906202846 88 60 5.0 11.0 0.00 0.00 0.00 33 1020.0
20260906202751 88 70 5.0 11.0 0.00 0.00 0.00 33 1020.0
20260906202650 88 27 5.0 11.0 0.00 0.00 0.00 33 1020.0
20260906202550 88 309 5.0 11.0 0.00 0.00 0.00 36 1020.2
20260906202451 88 77 5.0 10.0 0.00 0.00 0.00 36 1020.0
20260906202349 87 5 5.0 11.0 0.00 0.00 0.00 35 1020.0
20260906202249 87 38 6.0 11.0 0.00 0.00 0.00 34 1020.0
20260906202202 88 34 6.0 11.0 0.00 0.00 0.00 36 1020.0
20260906201848 87 86 6.0 11.0 0.00 0.00 0.00 35 1020.2
20260906201748 87 53 6.0 11.0 0.00 0.00 0.00 36 1020.2
20260906201649 87 57 6.0 11.0 0.00 0.00 0.00 34 1020.2
20260906201549 87 53 5.0 11.0 0.00 0.00 0.00 34 1020.2
20260906201459 87 46 6.0 11.0 0.00 0.00 0.00 37 1020.2
20260906201348 87 34 6.0 11.0 0.00 0.00 0.00 35 1020.2
20260906201242 87 30 5.0 11.0 0.00 0.00 0.00 36 1020.2
20260906201143 87 5 5.0 11.0 0.00 0.00 0.00 34 1020.2
20260906201042 87 76 6.0 13.0 0.00 0.00 0.00 36 1020.2
20260906200943 87 27 6.0 15.0 0.00 0.00 0.00 36 1020.2
20260906200842 87 22 6.0 15.0 0.00 0.00 0.00 38 1020.2
20260906200754 87 16 6.0 15.0 0.00 0.00 0.00 37 1020.2
20260906200441 87 38 6.0 15.0 0.00 0.00 0.00 36 1020.4
20260906200340 87 40 5.0 15.0 0.00 0.00 0.00 37 1020.3
20260906200334 87 5 5.0 15.0 0.00 0.00 0.00 37 1020.3
20260906200240 87 66 5.0 15.0 0.00 0.00 0.00 38 1020.4
20260906200147 87 62 5.0 15.0 0.00 0.00 0.00 36 1020.4
20260906195941 87 62 5.0 12.0 0.00 0.00 0.00 36 1020.4
20260906195841 87 49 5.0 12.0 0.00 0.00 0.00 36 1020.4
20260906195834 87 42 5.0 12.0 0.00 0.00 0.00 36 1020.4
20260906195740 87 56 5.0 12.0 0.00 0.00 0.00 35 1020.4
20260906195640 87 36 5.0 12.0 0.00 0.00 0.00 34 1020.4
20260906195534 87 21 5.0 12.0 0.00 0.00 0.00 35 1020.4
20260906195446 87 59 4.0 12.0 0.00 0.00 0.00 35 1020.5
20260906195334 87 54 4.0 12.0 0.00 0.00 0.00 37 1020.4
20260906195234 87 350 4.0 12.0 0.00 0.00 0.00 37 1020.4
20260906195134 87 46 4.0 12.0 0.00 0.00 0.00 36 1020.4
20260906194924 86 286 4.0 11.0 0.00 0.00 0.00 38 1020.4
20260906194834 86 341 4.0 11.0 0.00 0.00 0.00 35 1020.4
20260906194824 86 355 4.0 11.0 0.00 0.00 0.00 35 1020.4
20260906194722 86 39 5.0 11.0 0.00 0.00 0.00 37 1020.5
20260906194622 86 58 5.0 11.0 0.00 0.00 0.00 35 1020.4
20260906194520 86 73 5.0 11.0 0.00 0.00 0.00 35 1020.5
20260906194420 86 73 6.0 11.0 0.00 0.00 0.00 34 1020.4
20260906194320 86 73 6.0 11.0 0.00 0.00 0.00 34 1020.5
20260906194224 86 70 6.0 11.0 0.00 0.00 0.00 35 1020.6
20260906194016 86 123 6.0 11.0 0.00 0.00 0.00 35 1020.6
20260906193916 86 39 6.0 11.0 0.00 0.00 0.00 35 1020.5
20260906193831 86 67 5.0 11.0 0.00 0.00 0.00 35 1020.6
20260906193823 86 348 5.0 11.0 0.00 0.00 0.00 35 1020.6
20260906193617 87 49 5.0 11.0 0.00 0.00 0.00 33 1020.6
20260906193516 87 355 5.0 11.0 0.00 0.00 0.00 33 1020.6
20260906193416 87 91 5.0 11.0 0.00 0.00 0.00 34 1020.6
20260906193332 87 38 5.0 11.0 0.00 0.00 0.00 34 1020.6
20260906193316 87 15 5.0 10.0 0.00 0.00 0.00 34 1020.6
20260906193217 87 56 5.0 10.0 0.00 0.00 0.00 34 1020.5
20260906193116 87 38 5.0 10.0 0.00 0.00 0.00 35 1020.6
20260906193017 87 36 5.0 10.0 0.00 0.00 0.00 35 1020.6
20260906192917 87 22 4.0 10.0 0.00 0.00 0.00 35 1020.6
20260906192829 87 76 4.0 10.0 0.00 0.00 0.00 35 1020.7
20260906192810 87 51 4.0 10.0 0.00 0.00 0.00 34 1020.7
20260906192717 87 63 4.0 10.0 0.00 0.00 0.00 34 1020.6
20260906192510 86 38 4.0 10.0 0.00 0.00 0.00 36 1020.7
20260906192410 86 37 4.0 10.0 0.00 0.00 0.00 34 1020.7
20260906192330 87 17 4.0 10.0 0.00 0.00 0.00 34 1020.7
20260906192309 87 34 4.0 10.0 0.00 0.00 0.00 36 1020.7
20260906192209 87 38 4.0 9.0 0.00 0.00 0.00 38 1020.7
20260906192108 87 294 4.0 9.0 0.00 0.00 0.00 36 1020.7
20260906192006 87 26 5.0 9.0 0.00 0.00 0.00 36 1020.9
20260906191937 87 65 5.0 9.0 0.00 0.00 0.00 36 1020.9
20260906191758 87 44 5.0 9.0 0.00 0.00 0.00 35 1020.9
20260906191658 87 42 4.0 9.0 0.00 0.00 0.00 37 1021.0
20260906191558 87 9 5.0 9.0 0.00 0.00 0.00 36 1021.0
20260906191458 87 43 5.0 9.0 0.00 0.00 0.00 38 1021.1
20260906191405 86 80 5.0 11.0 0.00 0.00 0.00 40 1021.1
20260906191358 86 355 5.0 11.0 0.00 0.00 0.00 40 1021.1
20260906191154 86 11 5.0 12.0 0.00 0.00 0.00 38 1021.1
20260906191054 86 18 5.0 12.0 0.00 0.00 0.00 37 1021.1
20260906190953 86 9 5.0 12.0 0.00 0.00 0.00 36 1021.1
20260906190852 86 22 5.0 12.0 0.00 0.00 0.00 36 1021.1
20260906190830 86 17 5.0 12.0 0.00 0.00 0.00 36 1021.1
20260906190752 86 48 5.0 12.0 0.00 0.00 0.00 38 1021.1
20260906190652 86 36 5.0 12.0 0.00 0.00 0.00 36 1021.1
20260906190552 86 63 5.0 12.0 0.00 0.00 0.00 36 1021.2
20260906190459 86 49 4.0 12.0 0.00 0.00 0.00 37 1021.1
20260906190331 86 0 5.0 12.0 0.00 0.00 0.00 35 1021.2
20260906190250 86 51 5.0 12.0 0.00 0.00 0.00 36 1021.2
20260906190148 86 56 4.0 12.0 0.00 0.00 0.00 36 1021.2
20260906190054 86 100 4.0 12.0 0.00 0.00 0.00 36 1021.2
20260906185848 86 97 4.0 12.0 0.00 0.00 0.00 36 1021.2
20260906185830 85 68 4.0 12.0 0.00 0.00 0.00 35 1021.2
20260906185755 85 88 4.0 12.0 0.00 0.00 0.00 35 1021.2
20260906185601 85 82 4.0 12.0 0.00 0.00 0.00 35 1021.3
20260906185328 86 54 4.0 12.0 0.00 0.00 0.00 36 1021.3
20260906185256 86 68 4.0 12.0 0.00 0.00 0.00 36 1021.3
20260906185047 85 77 4.0 9.0 0.00 0.00 0.00 36 1021.5
20260906184947 85 55 4.0 9.0 0.00 0.00 0.00 37 1021.5
20260906184846 85 121 4.0 9.0 0.00 0.00 0.00 35 1021.5
20260906184828 85 84 4.0 9.0 0.00 0.00 0.00 35 1021.5
20260906184745 85 317 4.0 9.0 0.00 0.00 0.00 38 1021.5
20260906184643 85 321 4.0 9.0 0.00 0.00 0.00 35 1021.5
20260906184551 85 14 4.0 9.0 0.00 0.00 0.00 40 1021.5
20260906184342 85 308 4.0 9.0 0.00 0.00 0.00 38 1021.5
20260906184325 85 15 4.0 9.0 0.00 0.00 0.00 38 1021.6
20260906184242 85 22 4.0 9.0 0.00 0.00 0.00 35 1021.6
20260906184142 85 110 4.0 9.0 0.00 0.00 0.00 35 1021.6
20260906184043 85 93 4.0 9.0 0.00 0.00 0.00 35 1021.6
20260906183942 85 50 4.0 10.0 0.00 0.00 0.00 34 1021.7
20260906183842 85 55 4.0 10.0 0.00 0.00 0.00 36 1021.7
20260906183824 85 53 4.0 10.0 0.00 0.00 0.00 36 1021.6
20260906183749 85 58 4.0 10.0 0.00 0.00 0.00 37 1021.6
20260906183544 84 17 4.0 10.0 0.00 0.00 0.00 34 1021.7
20260906183537 84 29 4.0 10.0 0.00 0.00 0.00 39 1021.7
20260906183249 84 74 5.0 11.0 0.00 0.00 0.00 36 1021.7
20260906183042 84 73 5.0 11.0 0.00 0.00 0.00 37 1021.8
20260906182942 84 75 5.0 11.0 0.00 0.00 0.00 38 1021.7
20260906182842 84 355 5.0 11.0 0.00 0.00 0.00 38 1021.8
20260906182824 84 309 5.0 11.0 0.00 0.00 0.00 38 1021.8
20260906182742 84 32 5.0 11.0 0.00 0.00 0.00 35 1021.8
20260906182649 84 24 5.0 11.0 0.00 0.00 0.00 35 1021.8
20260906182440 84 31 4.0 11.0 0.00 0.00 0.00 35 1021.8
20260906182341 84 31 4.0 11.0 0.00 0.00 0.00 36 1021.9
20260906182324 84 31 4.0 11.0 0.00 0.00 0.00 36 1021.8
20260906182241 84 49 3.0 9.0 0.00 0.00 0.00 36 1021.9
20260906182154 84 72 3.0 9.0 0.00 0.00 0.00 38 1021.9
20260906181840 84 59 3.0 7.0 0.00 0.00 0.00 37 1021.9
20260906181821 84 84 3.0 7.0 0.00 0.00 0.00 38 1021.9
20260906181740 84 15 3.0 7.0 0.00 0.00 0.00 38 1022.0
20260906181653 84 26 3.0 8.0 0.00 0.00 0.00 37 1021.9
20260906181428 83 71 3.0 9.0 0.00 0.00 0.00 37 1022.0
20260906181240 83 71 4.0 9.0 0.00 0.00 0.00 37 1022.2
20260906181139 83 55 4.0 9.0 0.00 0.00 0.00 39 1022.2
20260906181041 83 17 4.0 9.0 0.00 0.00 0.00 40 1022.2
20260906180940 83 9 4.0 9.0 0.00 0.00 0.00 37 1022.2
20260906180928 83 43 4.0 9.0 0.00 0.00 0.00 38 1022.2
20260906180740 83 87 5.0 9.0 0.00 0.00 0.00 39 1022.2
20260906180641 83 17 5.0 9.0 0.00 0.00 0.00 38 1022.2
20260906180434 83 26 5.0 9.0 0.00 0.00 0.00 38 1022.2
20260906180334 83 26 4.0 8.0 0.00 0.00 0.00 37 1022.3
20260906180321 83 55 4.0 8.0 0.00 0.00 0.00 37 1022.3
20260906180234 83 56 4.0 8.0 0.00 0.00 0.00 37 1022.3
20260906180132 84 34 4.0 8.0 0.00 0.00 0.00 38 1022.3
20260906180028 83 49 5.0 8.0 0.00 0.00 0.00 38 1022.3
20260906175928 83 78 5.0 8.0 0.00 0.00 0.00 41 1022.3
20260906175829 83 48 4.0 10.0 0.00 0.00 0.00 39 1022.2
20260906175822 83 23 4.0 10.0 0.00 0.00 0.00 39 1022.2
20260906175736 83 96 4.0 10.0 0.00 0.00 0.00 40 1022.3
20260906175528 83 84 4.0 10.0 0.00 0.00 0.00 41 1022.3
20260906175428 82 43 4.0 10.0 0.00 0.00 0.00 41 1022.4
20260906175321 82 50 5.0 10.0 0.00 0.00 0.00 42 1022.3
20260906175228 82 67 5.0 10.0 0.00 0.00 0.00 40 1022.4
20260906175129 82 56 5.0 10.0 0.00 0.00 0.00 41 1022.4
20260906175028 82 97 5.0 10.0 0.00 0.00 0.00 40 1022.4
20260906174928 82 30 5.0 10.0 0.00 0.00 0.00 40 1022.4
20260906174839 82 57 5.0 10.0 0.00 0.00 0.00 43 1022.4
20260906174833 82 38 5.0 10.0 0.00 0.00 0.00 43 1022.4
20260906174628 82 44 5.0 10.0 0.00 0.00 0.00 39 1022.5
20260906174528 83 49 5.0 10.0 0.00 0.00 0.00 39 1022.6
20260906174428 83 41 4.0 10.0 0.00 0.00 0.00 40 1022.6
20260906174329 83 78 4.0 10.0 0.00 0.00 0.00 42 1022.6
20260906174322 83 66 4.0 10.0 0.00 0.00 0.00 42 1022.6
20260906174229 83 22 4.0 8.0 0.00 0.00 0.00 45 1022.6
20260906174125 83 33 3.0 8.0 0.00 0.00 0.00 44 1022.6
20260906174030 83 46 3.0 8.0 0.00 0.00 0.00 44 1022.8
20260906173824 83 355 3.0 8.0 0.00 0.00 0.00 44 1022.9
20260906173724 83 22 3.0 8.0 0.00 0.00 0.00 44 1022.8
20260906173624 83 5 3.0 8.0 0.00 0.00 0.00 44 1022.9
20260906173524 83 0 3.0 8.0 0.00 0.00 0.00 42 1022.9
20260906173424 83 328 4.0 8.0 0.00 0.00 0.00 43 1022.9
20260906173324 83 45 4.0 8.0 0.00 0.00 0.00 43 1022.9
20260906173225 83 20 4.0 8.0 0.00 0.00 0.00 47 1023.0
20260906173124 82 44 4.0 8.0 0.00 0.00 0.00 46 1023.0
20260906173025 82 24 4.0 8.0 0.00 0.00 0.00 46 1023.0
20260906172923 82 350 4.0 8.0 0.00 0.00 0.00 46 1023.0
20260906172824 82 0 4.0 8.0 0.00 0.00 0.00 45 1023.0
20260906172731 82 348 4.0 8.0 0.00 0.00 0.00 44 1023.0
20260906172524 81 101 4.0 8.0 0.00 0.00 0.00 45 1023.0
20260906172424 81 44 4.0 8.0 0.00 0.00 0.00 44 1023.0
20260906172324 81 52 4.0 8.0 0.00 0.00 0.00 45 1023.0
20260906172220 81 61 5.0 8.0 0.00 0.00 0.00 45 1023.1
20260906172120 81 80 5.0 10.0 0.00 0.00 0.00 45 1023.0
20260906172021 81 73 5.0 11.0 0.00 0.00 0.00 46 1023.1
20260906171931 81 104 6.0 11.0 0.00 0.00 0.00 46 1023.1
20260906171820 80 80 5.0 11.0 0.00 0.00 0.00 45 1023.0
20260906171720 80 80 6.0 11.0 0.00 0.00 0.00 46 1023.1
20260906171620 80 82 5.0 11.0 0.00 0.00 0.00 46 1023.1
20260906171520 80 80 5.0 11.0 0.00 0.00 0.00 47 1023.1
20260906171420 80 88 5.0 11.0 0.00 0.00 0.00 49 1023.1
20260906171321 80 71 5.0 11.0 0.00 0.00 0.00 46 1023.1
20260906171219 80 5 5.0 11.0 0.00 0.00 0.00 45 1023.1
20260906171120 81 36 4.0 11.0 0.00 0.00 0.00 45 1023.1
20260906171027 81 42 4.0 9.0 0.00 0.00 0.00 44 1023.1
20260906170820 81 155 4.0 7.0 0.00 0.00 0.00 45 1023.2
20260906170720 81 140 3.0 7.0 0.00 0.00 0.00 45 1023.2
20260906170620 80 45 3.0 7.0 0.00 0.00 0.00 44 1023.2
20260906170520 80 76 3.0 7.0 0.00 0.00 0.00 46 1023.2
20260906170420 80 119 3.0 7.0 0.00 0.00 0.00 45 1023.4
20260906170320 80 107 3.0 7.0 0.00 0.00 0.00 45 1023.4
20260906170316 80 111 3.0 7.0 0.00 0.00 0.00 45 1023.4
20260906170216 80 96 3.0 7.0 0.00 0.00 0.00 48 1023.4
20260906170116 80 58 3.0 6.0 0.00 0.00 0.00 50 1023.4
20260906170022 80 107 3.0 6.0 0.00 0.00 0.00 46 1023.4
20260906165820 79 125 2.0 6.0 0.00 0.00 0.00 46 1023.5
20260906165816 79 119 2.0 6.0 0.00 0.00 0.00 46 1023.5
20260906165716 79 36 3.0 6.0 0.00 0.00 0.00 47 1023.5
20260906165623 79 58 3.0 6.0 0.00 0.00 0.00 46 1023.5
20260906165427 79 56 3.0 6.0 0.00 0.00 0.00 45 1023.5
20260906165316 79 53 3.0 6.0 0.00 0.00 0.00 46 1023.5
20260906165216 79 33 2.0 6.0 0.00 0.00 0.00 46 1023.5
20260906165116 79 69 3.0 6.0 0.00 0.00 0.00 47 1023.5
20260906165016 79 335 3.0 6.0 0.00 0.00 0.00 47 1023.5
20260906164916 78 335 3.0 6.0 0.00 0.00 0.00 45 1023.5
20260906164816 78 335 4.0 6.0 0.00 0.00 0.00 45 1023.5
20260906164716 78 42 4.0 8.0 0.00 0.00 0.00 45 1023.5
20260906164615 78 40 3.0 8.0 0.00 0.00 0.00 45 1023.5
20260906164516 78 34 3.0 8.0 0.00 0.00 0.00 48 1023.5
20260906164424 78 23 3.0 8.0 0.00 0.00 0.00 46 1023.5
20260906164312 78 32 3.0 8.0 0.00 0.00 0.00 48 1023.5
20260906164212 78 67 3.0 8.0 0.00 0.00 0.00 47 1023.5
20260906164125 78 46 3.0 8.0 0.00 0.00 0.00 46 1023.5
20260906163813 79 42 2.0 8.0 0.00 0.00 0.00 46 1023.5
20260906163711 79 44 2.0 6.0 0.00 0.00 0.00 46 1023.5
20260906163612 79 68 2.0 6.0 0.00 0.00 0.00 46 1023.5
20260906163512 79 96 2.0 4.0 0.00 0.00 0.00 48 1023.5
20260906163411 78 156 2.0 4.0 0.00 0.00 0.00 48 1023.4
20260906163318 78 158 2.0 3.0 0.00 0.00 0.00 48 1023.5
20260906163313 78 131 2.0 3.0 0.00 0.00 0.00 48 1023.5
20260906163226 78 141 2.0 6.0 0.00 0.00 0.00 49 1023.4
20260906162912 77 63 3.0 7.0 0.00 0.00 0.00 53 1023.4
20260906162817 77 63 3.0 7.0 0.00 0.00 0.00 50 1023.4
20260906162813 77 62 3.0 7.0 0.00 0.00 0.00 52 1023.4
20260906162712 77 54 3.0 7.0 0.00 0.00 0.00 49 1023.4
20260906162612 77 42 3.0 7.0 0.00 0.00 0.00 49 1023.5
20260906162506 77 57 3.0 7.0 0.00 0.00 0.00 49 1023.4
20260906162407 77 94 3.0 7.0 0.00 0.00 0.00 49 1023.4
20260906162315 77 95 3.0 7.0 0.00 0.00 0.00 49 1023.4
20260906162306 77 104 3.0 7.0 0.00 0.00 0.00 50 1023.4
20260906162206 77 79 2.0 7.0 0.00 0.00 0.00 51 1023.4
20260906162104 77 74 2.0 5.0 0.00 0.00 0.00 50 1023.4
20260906162002 77 32 3.0 6.0 0.00 0.00 0.00 50 1023.4
20260906161902 77 13 3.0 6.0 0.00 0.00 0.00 50 1023.2
20260906161813 77 17 3.0 6.0 0.00 0.00 0.00 50 1023.4
20260906161800 77 44 3.0 6.0 0.00 0.00 0.00 50 1023.4
20260906161659 77 23 3.0 6.0 0.00 0.00 0.00 51 1023.2
20260906161557 77 55 3.0 6.0 0.00 0.00 0.00 50 1023.4
20260906161454 76 72 3.0 6.0 0.00 0.00 0.00 50 1023.4
20260906161404 76 79 3.0 6.0 0.00 0.00 0.00 51 1023.4
20260906161357 76 80 3.0 6.0 0.00 0.00 0.00 50 1023.2
20260906161152 76 80 3.0 6.0 0.00 0.00 0.00 50 1023.4
20260906161051 77 67 3.0 6.0 0.00 0.00 0.00 50 1023.4
20260906160946 77 97 3.0 6.0 0.00 0.00 0.00 51 1023.2
20260906160856 76 40 3.0 6.0 0.00 0.00 0.00 54 1023.2
20260906160850 76 347 3.0 6.0 0.00 0.00 0.00 54 1023.2
20260906160650 76 64 3.0 5.0 0.00 0.00 0.00 54 1023.2
20260906160440 75 134 3.0 6.0 0.00 0.00 0.00 56 1023.2
20260906160339 75 79 3.0 6.0 0.00 0.00 0.00 55 1023.2
20260906160310 75 101 3.0 6.0 0.00 0.00 0.00 57 1023.2
20260906160245 75 103 3.0 6.0 0.00 0.00 0.00 57 1023.2
20260906160035 75 83 4.0 6.0 0.00 0.00 0.00 57 1023.2
20260906155936 75 67 4.0 6.0 0.00 0.00 0.00 57 1023.2
20260906155808 74 18 4.0 6.0 0.00 0.00 0.00 56 1023.2
20260906155730 74 32 4.0 6.0 0.00 0.00 0.00 56 1023.2
20260906155630 74 57 4.0 8.0 0.00 0.00 0.00 58 1023.2
20260906155528 74 17 4.0 8.0 0.00 0.00 0.00 56 1023.2
20260906155427 74 40 4.0 8.0 0.00 0.00 0.00 56 1023.2
20260906155326 74 63 4.0 8.0 0.00 0.00 0.00 57 1023.2
20260906155307 74 68 4.0 8.0 0.00 0.00 0.00 57 1023.2
20260906155226 74 55 5.0 8.0 0.00 0.00 0.00 57 1023.2
20260906155124 74 42 5.0 8.0 0.00 0.00 0.00 59 1023.2
20260906155021 74 71 5.0 9.0 0.00 0.00 0.00 59 1023.2
20260906154918 74 84 5.0 9.0 0.00 0.00 0.00 59 1023.2
20260906154816 74 54 5.0 10.0 0.00 0.00 0.00 59 1023.2
20260906154805 74 60 5.0 10.0 0.00 0.00 0.00 59 1023.2
20260906154716 74 48 5.0 10.0 0.00 0.00 0.00 59 1023.2
20260906154616 74 71 5.0 10.0 0.00 0.00 0.00 59 1023.2
20260906154525 74 34 4.0 10.0 0.00 0.00 0.00 60 1023.1
20260906154305 73 58 5.0 10.0 0.00 0.00 0.00 59 1023.1
20260906154218 73 70 4.0 10.0 0.00 0.00 0.00 60 1023.1
20260906154010 73 61 4.0 10.0 0.00 0.00 0.00 60 1023.2
20260906153811 73 26 3.0 8.0 0.00 0.00 0.00 60 1023.1
20260906153807 73 60 3.0 8.0 0.00 0.00 0.00 60 1023.1
20260906153605 73 57 3.0 8.0 0.00 0.00 0.00 61 1023.1
20260906153353 73 47 3.0 8.0 0.00 0.00 0.00 61 1023.2
20260906153305 72 36 3.0 7.0 0.00 0.00 0.00 63 1023.1
20260906153252 72 82 3.0 7.0 0.00 0.00 0.00 63 1023.1
20260906153159 72 65 3.0 8.0 0.00 0.00 0.00 65 1023.1
20260906152949 72 355 3.0 8.0 0.00 0.00 0.00 64 1023.1
20260906152845 71 30 4.0 8.0 0.00 0.00 0.00 65 1023.1
20260906152805 71 344 4.0 8.0 0.00 0.00 0.00 64 1023.1
20260906152746 71 337 4.0 8.0 0.00 0.00 0.00 64 1023.1
20260906152646 71 69 4.0 8.0 0.00 0.00 0.00 65 1023.1
20260906152546 71 44 4.0 8.0 0.00 0.00 0.00 65 1023.1
20260906152443 71 40 4.0 8.0 0.00 0.00 0.00 65 1023.1
20260906152405 70 44 4.0 8.0 0.00 0.00 0.00 66 1023.1
20260906152238 70 74 4.0 8.0 0.00 0.00 0.00 66 1023.1
20260906152137 70 59 4.0 7.0 0.00 0.00 0.00 66 1023.1
20260906152045 70 341 5.0 7.0 0.00 0.00 0.00 66 1023.1
20260906151844 70 32 4.0 7.0 0.00 0.00 0.00 66 1023.1
20260906151837 70 0 4.0 7.0 0.00 0.00 0.00 66 1023.1
20260906151631 70 36 4.0 7.0 0.00 0.00 0.00 67 1023.1
20260906151532 70 59 4.0 7.0 0.00 0.00 0.00 67 1023.1
20260906151431 70 44 3.0 7.0 0.00 0.00 0.00 68 1023.1
20260906151325 69 37 3.0 7.0 0.00 0.00 0.00 68 1023.1
20260906151247 69 63 3.0 7.0 0.00 0.00 0.00 69 1023.1
20260906151225 69 39 3.0 7.0 0.00 0.00 0.00 69 1023.1
20260906151126 69 11 3.0 7.0 0.00 0.00 0.00 69 1023.1
20260906151040 69 63 2.0 5.0 0.00 0.00 0.00 69 1023.2
20260906150740 69 69 2.0 5.0 0.00 0.00 0.00 69 1023.2
20260906150722 69 54 2.0 5.0 0.00 0.00 0.00 69 1023.2
20260906150621 69 46 2.0 4.0 0.00 0.00 0.00 69 1023.1
20260906150522 69 331 2.0 5.0 0.00 0.00 0.00 69 1023.2
20260906150419 69 330 3.0 5.0 0.00 0.00 0.00 70 1023.2
20260906150314 69 351 3.0 5.0 0.00 0.00 0.00 70 1023.2
20260906150235 69 300 3.0 5.0 0.00 0.00 0.00 70 1023.2
20260906150213 69 292 3.0 5.0 0.00 0.00 0.00 70 1023.2
20260906150114 69 292 3.0 5.0 0.00 0.00 0.00 70 1023.2
20260906150014 69 0 3.0 5.0 0.00 0.00 0.00 70 1023.4
20260906145914 69 45 2.0 5.0 0.00 0.00 0.00 70 1023.4
20260906145819 69 27 2.0 5.0 0.00 0.00 0.00 70 1023.4
20260906145812 69 17 2.0 5.0 0.00 0.00 0.00 70 1023.4
20260906145608 68 17 2.0 5.0 0.00 0.00 0.00 71 1023.2
20260906145514 68 36 2.0 5.0 0.00 0.00 0.00 71 1023.4
20260906145308 68 333 2.0 5.0 0.00 0.00 0.00 72 1023.4
20260906145223 68 319 2.0 5.0 0.00 0.00 0.00 72 1023.4
20260906145206 68 355 2.0 5.0 0.00 0.00 0.00 72 1023.4
20260906145105 68 351 2.0 5.0 0.00 0.00 0.00 72 1023.2
20260906145003 68 38 2.0 5.0 0.00 0.00 0.00 73 1023.2
20260906144901 68 38 2.0 5.0 0.00 0.00 0.00 73 1023.2
20260906144802 68 38 2.0 5.0 0.00 0.00 0.00 73 1023.2
20260906144716 68 32 3.0 5.0 0.00 0.00 0.00 73 1023.2
20260906144700 68 32 3.0 5.0 0.00 0.00 0.00 73 1023.2
20260906144559 67 51 2.0 5.0 0.00 0.00 0.00 74 1023.1
20260906144458 67 0 2.0 5.0 0.00 0.00 0.00 73 1023.2
20260906144355 67 47 2.0 5.0 0.00 0.00 0.00 73 1023.1
20260906144317 67 28 2.0 5.0 0.00 0.00 0.00 73 1023.2
20260906144154 67 39 2.0 5.0 0.00 0.00 0.00 74 1023.2
20260906144058 67 39 3.0 5.0 0.00 0.00 0.00 74 1023.4
20260906143850 67 39 3.0 6.0 0.00 0.00 0.00 75 1023.2
20260906143750 67 340 3.0 6.0 0.00 0.00 0.00 75 1023.4
20260906143705 67 321 3.0 6.0 0.00 0.00 0.00 75 1023.4
20260906143648 67 30 3.0 6.0 0.00 0.00 0.00 75 1023.4
20260906143547 67 355 3.0 6.0 0.00 0.00 0.00 75 1023.2
20260906143445 67 355 3.0 6.0 0.00 0.00 0.00 74 1023.1
20260906143345 67 331 3.0 6.0 0.00 0.00 0.00 74 1023.1
20260906143159 67 0 3.0 6.0 0.00 0.00 0.00 74 1023.2
20260906143138 67 17 3.0 6.0 0.00 0.00 0.00 74 1023.1
20260906143038 67 344 3.0 6.0 0.00 0.00 0.00 75 1023.1
20260906142937 67 355 3.0 6.0 0.00 0.00 0.00 75 1023.2
20260906142838 67 355 3.0 6.0 0.00 0.00 0.00 75 1023.2
20260906142759 67 313 3.0 6.0 0.00 0.00 0.00 75 1023.2
20260906142636 67 5 3.0 6.0 0.00 0.00 0.00 75 1023.2
20260906142535 67 5 3.0 6.0 0.00 0.00 0.00 75 1023.2
20260906142434 67 15 3.0 6.0 0.00 0.00 0.00 76 1023.2
20260906142331 66 23 3.0 6.0 0.00 0.00 0.00 76 1023.2
20260906142258 66 344 2.0 6.0 0.00 0.00 0.00 76 1023.2
20260906142126 66 348 2.0 6.0 0.00 0.00 0.00 76 1023.2
20260906142026 66 341 2.0 5.0 0.00 0.00 0.00 76 1023.2
20260906141926 66 324 2.0 5.0 0.00 0.00 0.00 76 1023.2
20260906141825 66 315 2.0 5.0 0.00 0.00 0.00 75 1023.2
20260906141735 66 314 2.0 5.0 0.00 0.00 0.00 76 1023.4
20260906141728 66 314 2.0 5.0 0.00 0.00 0.00 76 1023.4
20260906141524 66 355 2.0 5.0 0.00 0.00 0.00 76 1023.2
20260906141422 66 34 2.0 5.0 0.00 0.00 0.00 76 1023.2
20260906141319 66 34 2.0 5.0 0.00 0.00 0.00 76 1023.1
20260906141213 66 34 2.0 5.0 0.00 0.00 0.00 76 1023.1
20260906141149 65 34 2.0 5.0 0.00 0.00 0.00 76 1023.1
20260906141113 65 34 2.0 5.0 0.00 0.00 0.00 76 1023.1
20260906141014 65 34 2.0 5.0 0.00 0.00 0.00 76 1023.1
20260906140914 65 34 2.0 5.0 0.00 0.00 0.00 76 1023.1
20260906140813 65 34 2.0 5.0 0.00 0.00 0.00 76 1023.1
20260906140718 65 37 2.0 5.0 0.00 0.00 0.00 76 1023.2
20260906140711 65 344 2.0 5.0 0.00 0.00 0.00 76 1023.2
20260906140508 65 344 1.0 5.0 0.00 0.00 0.00 77 1023.2
20260906140408 65 342 1.0 5.0 0.00 0.00 0.00 77 1023.2
20260906140307 65 305 1.0 4.0 0.00 0.00 0.00 77 1023.4
20260906140145 65 305 2.0 4.0 0.00 0.00 0.00 77 1023.2
20260906140002 65 305 2.0 5.0 0.00 0.00 0.00 77 1023.2
20260906135859 65 305 3.0 6.0 0.00 0.00 0.00 77 1023.2
20260906135759 65 305 3.0 6.0 0.00 0.00 0.00 77 1023.2
20260906135752 65 305 3.0 6.0 0.00 0.00 0.00 77 1023.2
20260906135556 65 305 3.0 7.0 0.00 0.00 0.00 77 1023.2
20260906135455 65 305 3.0 7.0 0.00 0.00 0.00 77 1023.2
20260906135401 65 305 3.0 7.0 0.00 0.00 0.00 77 1023.2
20260906135150 64 327 3.0 7.0 0.00 0.00 0.00 77 1023.1
20260906135143 64 326 3.0 7.0 0.00 0.00 0.00 77 1023.1
20260906135048 64 318 3.0 7.0 0.00 0.00 0.00 77 1023.1
20260906134947 64 321 2.0 7.0 0.00 0.00 0.00 77 1023.2
20260906134847 64 305 3.0 7.0 0.00 0.00 0.00 77 1023.2
20260906134747 64 305 3.0 7.0 0.00 0.00 0.00 77 1023.1
20260906134642 64 300 2.0 7.0 0.00 0.00 0.00 77 1023.1
20260906134548 64 336 2.0 7.0 0.00 0.00 0.00 76 1023.2
20260906134342 64 336 3.0 7.0 0.00 0.00 0.00 76 1023.1
20260906134241 64 5 3.0 7.0 0.00 0.00 0.00 76 1023.1
20260906134141 64 321 3.0 8.0 0.00 0.00 0.00 77 1023.1
20260906134136 64 355 4.0 8.0 0.00 0.00 0.00 77 1023.1
20260906134036 64 321 4.0 8.0 0.00 0.00 0.00 77 1023.1
20260906133935 64 329 4.0 8.0 0.00 0.00 0.00 77 1023.0
20260906133841 64 309 4.0 8.0 0.00 0.00 0.00 77 1023.0
20260906133642 64 298 5.0 8.0 0.00 0.00 0.00 77 1023.1
20260906133629 64 336 5.0 8.0 0.00 0.00 0.00 77 1023.0
20260906133530 64 268 5.0 8.0 0.00 0.00 0.00 77 1023.0
20260906133430 64 304 5.0 8.0 0.00 0.00 0.00 77 1023.0
20260906133330 63 329 5.0 8.0 0.00 0.00 0.00 77 1022.9
20260906133229 63 317 5.0 8.0 0.00 0.00 0.00 77 1023.0
20260906133141 63 304 5.0 8.0 0.00 0.00 0.00 77 1023.0
20260906133123 63 294 5.0 8.0 0.00 0.00 0.00 76 1023.0
20260906133023 63 304 4.0 8.0 0.00 0.00 0.00 76 1023.0
20260906132924 63 298 4.0 8.0 0.00 0.00 0.00 76 1023.0
20260906132830 63 321 4.0 8.0 0.00 0.00 0.00 76 1023.0
20260906132642 63 324 4.0 7.0 0.00 0.00 0.00 75 1023.0
20260906132619 63 327 4.0 7.0 0.00 0.00 0.00 75 1023.1
20260906132518 63 323 4.0 7.0 0.00 0.00 0.00 76 1023.0
20260906132418 62 307 4.0 7.0 0.00 0.00 0.00 76 1023.0
20260906132318 62 331 4.0 7.0 0.00 0.00 0.00 75 1023.0
20260906132228 62 317 4.0 7.0 0.00 0.00 0.00 75 1023.0
20260906132222 62 311 4.0 7.0 0.00 0.00 0.00 75 1023.0
20260906132016 62 293 4.0 7.0 0.00 0.00 0.00 75 1023.0
20260906131914 62 292 4.0 7.0 0.00 0.00 0.00 75 1023.0
20260906131814 62 313 4.0 7.0 0.00 0.00 0.00 75 1023.0
20260906131711 62 319 4.0 7.0 0.00 0.00 0.00 75 1022.9
20260906131641 62 290 4.0 7.0 0.00 0.00 0.00 75 1022.9
20260906131612 62 316 4.0 7.0 0.00 0.00 0.00 75 1023.0
20260906131511 0 321 4.0 7.0 0.00 0.00 0.00 1023.0
20260906131410 0 296 4.0 7.0 0.00 0.00 0.00 1023.0
20260906131310 0 336 4.0 7.0 0.00 0.00 0.00 1023.0
20260906131209 0 310 4.0 7.0 0.00 0.00 0.00 1023.0
20260906131140 0 302 4.0 7.0 0.00 0.00 0.00 1023.0
20260906131109 0 336 4.0 7.0 0.00 0.00 0.00 1023.0
20260906131010 0 343 4.0 7.0 0.00 0.00 0.00 1023.0
20260906130909 0 321 4.0 7.0 0.00 0.00 0.00 1023.0
20260906130807 0 300 4.0 7.0 0.00 0.00 0.00 1023.0
20260906130704 0 302 4.0 7.0 0.00 0.00 0.00 1023.0
20260906130641 0 286 4.0 7.0 0.00 0.00 0.00 1023.0
20260906130603 0 309 4.0 7.0 0.00 0.00 0.00 1023.0
20260906130504 0 298 4.0 7.0 0.00 0.00 0.00 1023.0
20260906130403 0 321 4.0 7.0 0.00 0.00 0.00 1022.9
20260906130303 0 305 4.0 7.0 0.00 0.00 0.00 1023.0
20260906130204 0 327 4.0 7.0 0.00 0.00 0.00 1023.0
20260906130142 0 301 4.0 7.0 0.00 0.00 0.00 1023.0
20260906130103 0 305 4.0 7.0 0.00 0.00 0.00 1022.9
20260906130004 0 306 3.0 7.0 0.00 0.00 0.00 1023.0
20260906125904 0 306 3.0 5.0 0.00 0.00 0.00 1022.9
20260906125801 0 306 3.0 5.0 0.00 0.00 0.00 1022.9
20260906125701 0 306 2.0 5.0 0.00 0.00 0.00 1022.9
20260906125641 0 306 2.0 4.0 0.00 0.00 0.00 1022.9
20260906125602 0 306 2.0 4.0 0.00 0.00 0.00 1022.9
20260906125509 0 306 2.0 4.0 0.00 0.00 0.00 1022.9
20260906125259 0 341 2.0 4.0 0.00 0.00 0.00 1022.9
20260906125200 0 341 2.0 3.0 0.00 0.00 0.00 1022.9
20260906125139 0 341 1.0 3.0 0.00 0.00 0.00 1022.9
20260906125054 0 341 1.0 4.0 0.00 0.00 0.00 1022.9
20260906124954 0 341 2.0 4.0 0.00 0.00 0.00 1022.9
20260906124853 0 341 2.0 4.0 0.00 0.00 0.00 1022.9
20260906124811 0 341 2.0 4.0 0.00 0.00 0.00 1022.9
20260906124804 0 341 2.0 4.0 0.00 0.00 0.00 1022.9
20260906124347 0 341 2.0 4.0 0.00 0.00 0.00 1022.8
20260906124137 0 341 2.0 4.0 0.00 0.00 0.00 1022.8
20260906124038 0 320 1.0 4.0 0.00 0.00 0.00 1022.8
20260906123951 0 326 1.0 4.0 0.00 0.00 0.00 1022.8
20260906123637 0 326 1.0 3.0 0.00 0.00 0.00 1022.9
20260906123538 0 326 1.0 3.0 0.00 0.00 0.00 1022.8
20260906123437 0 326 1.0 3.0 0.00 0.00 0.00 1022.8
20260906123338 0 326 1.0 3.0 0.00 0.00 0.00 1022.8
20260906123237 0 326 1.0 3.0 0.00 0.00 0.00 1022.8
20260906123137 0 325 1.0 3.0 0.00 0.00 0.00 1022.8
20260906123038 0 326 1.0 4.0 0.00 0.00 0.00 1022.8
20260906122936 0 325 2.0 4.0 0.00 0.00 0.00 1022.8
20260906122836 0 326 2.0 4.0 0.00 0.00 0.00 1022.8
20260906122736 0 326 2.0 4.0 0.00 0.00 0.00 1022.8
20260906122631 0 326 2.0 4.0 0.00 0.00 0.00 1022.8
20260906122526 0 326 2.0 4.0 0.00 0.00 0.00 1022.8
20260906122425 0 326 2.0 4.0 0.00 0.00 0.00 1022.8
20260906122321 0 326 2.0 4.0 0.00 0.00 0.00 1022.8
20260906122220 0 326 2.0 4.0 0.00 0.00 0.00 1022.8
20260906122120 0 326 2.0 4.0 0.00 0.00 0.00 1022.8
20260906122027 0 321 2.0 5.0 0.00 0.00 0.00 1022.8
20260906121817 0 321 3.0 7.0 0.00 0.00 0.00 1022.8
20260906121716 0 321 3.0 7.0 0.00 0.00 0.00 1022.8
20260906121616 0 321 3.0 7.0 0.00 0.00 0.00 1022.8
20260906121513 0 321 3.0 7.0 0.00 0.00 0.00 1022.8
20260906121413 0 321 3.0 7.0 0.00 0.00 0.00 1022.8
20260906121312 0 321 4.0 7.0 0.00 0.00 0.00 1022.8
20260906121212 0 294 4.0 7.0 0.00 0.00 0.00 1022.8
20260906121131 0 300 3.0 7.0 0.00 0.00 0.00 1022.8
20260906121113 0 299 3.0 7.0 0.00 0.00 0.00 1022.8
20260906120915 0 315 3.0 7.0 0.00 0.00 0.00 1022.6
20260906120631 0 317 3.0 5.0 0.00 0.00 0.00 1022.6
20260906120602 0 315 3.0 5.0 0.00 0.00 0.00 1022.6
20260906120528 0 294 3.0 5.0 0.00 0.00 0.00 1022.6
20260906120201 0 331 2.0 6.0 0.00 0.00 0.00 1022.8
20260906115956 0 343 3.0 6.0 0.00 0.00 0.00 1022.8
20260906115902 0 343 3.0 6.0 0.00 0.00 0.00 1022.8
20260906115654 0 294 3.0 6.0 0.00 0.00 0.00 1022.8
20260906115626 0 294 2.0 6.0 0.00 0.00 0.00 1022.8
20260906115552 0 326 2.0 6.0 0.00 0.00 0.00 1022.8
20260906115452 0 317 2.0 5.0 0.00 0.00 0.00 1022.8
20260906115416 0 266 3.0 5.0 0.00 0.00 0.00 1022.8
20260906115410 0 289 3.0 5.0 0.00 0.00 0.00 1022.9
20260906114840 0 290 2.0 4.0 0.00 0.00 0.00 1022.9
20260906114740 0 290 2.0 4.0 0.00 0.00 0.00 1022.8
20260906114620 0 290 2.0 4.0 0.00 0.00 0.00 1022.9
20260906114557 0 290 2.0 4.0 0.00 0.00 0.00 1022.9
20260906114121 0 314 1.0 3.0 0.00 0.00 0.00 1022.9
20260906114035 0 314 1.0 3.0 0.00 0.00 0.00 1022.8
20260906113942 0 314 1.0 3.0 0.00 0.00 0.00 1022.9
20260906113734 0 314 1.0 3.0 0.00 0.00 0.00 1022.9
20260906113621 0 314 1.0 4.0 0.00 0.00 0.00 1022.9
20260906113532 0 314 1.0 5.0 0.00 0.00 0.00 1022.9
20260906113430 0 314 2.0 5.0 0.00 0.00 0.00 1022.9
20260906113330 0 314 2.0 5.0 0.00 0.00 0.00 1022.8
20260906113234 0 314 2.0 5.0 0.00 0.00 0.00 1022.8
20260906113119 0 314 3.0 7.0 0.00 0.00 0.00 1022.8
20260906113025 0 314 3.0 7.0 0.00 0.00 0.00 1022.8
20260906112924 0 348 3.0 7.0 0.00 0.00 0.00 1022.8
20260906112816 0 348 3.0 7.0 0.00 0.00 0.00 1022.8
20260906112715 0 348 4.0 7.0 0.00 0.00 0.00 1022.8
20260906112620 0 326 4.0 7.0 0.00 0.00 0.00 1022.8
20260906112615 0 335 4.0 7.0 0.00 0.00 0.00 1022.8
20260906112543 0 306 4.0 7.0 0.00 0.00 0.00 1022.8
20260906112429 0 306 4.0 7.0 0.00 0.00 0.00 1022.8
20260906112012 0 292 3.0 7.0 0.00 0.00 0.00 1022.8
20260906111909 0 313 3.0 7.0 0.00 0.00 0.00 1022.8
20260906111809 0 311 3.0 7.0 0.00 0.00 0.00 1022.6
20260906111710 0 350 4.0 7.0 0.00 0.00 0.00 1022.6
20260906111616 0 293 4.0 7.0 0.00 0.00 0.00 1022.6
20260906111420 0 305 4.0 6.0 0.00 0.00 0.00 1022.6
20260906111106 0 336 3.0 6.0 0.00 0.00 0.00 1022.6
20260906111006 0 336 3.0 6.0 0.00 0.00 0.00 1022.8
20260906110903 0 333 3.0 6.0 0.00 0.00 0.00 1022.6
20260906110804 0 302 3.0 6.0 0.00 0.00 0.00 1022.6
20260906110702 0 311 3.0 6.0 0.00 0.00 0.00 1022.6
20260906110613 0 322 2.0 6.0 0.00 0.00 0.00 1022.6
20260906110602 0 325 2.0 6.0 0.00 0.00 0.00 1022.6
20260906110504 0 319 2.0 5.0 0.00 0.00 0.00 1022.6
20260906110258 0 344 2.0 4.0 0.00 0.00 0.00 1022.6
20260906110156 0 344 2.0 5.0 0.00 0.00 0.00 1022.6
20260906110113 0 332 2.0 5.0 0.00 0.00 0.00 1022.6
20260906110100 0 332 2.0 5.0 0.00 0.00 0.00 1022.6
20260906105851 0 332 2.0 5.0 0.00 0.00 0.00 1022.6
20260906105751 0 332 2.0 5.0 0.00 0.00 0.00 1022.6
20260906105720 0 332 3.0 5.0 0.00 0.00 0.00 1022.6
20260906105550 63 332 3.0 5.0 0.00 0.00 0.00 73 1022.6
20260906105454 63 333 3.0 5.0 0.00 0.00 0.00 73 1022.5
20260906105248 63 335 3.0 5.0 0.00 0.00 0.00 73 1022.6
20260906105148 63 327 3.0 5.0 0.00 0.00 0.00 73 1022.6
20260906105113 63 327 3.0 5.0 0.00 0.00 0.00 73 1022.6
20260906105047 63 306 3.0 5.0 0.00 0.00 0.00 73 1022.6
20260906104946 63 327 3.0 6.0 0.00 0.00 0.00 73 1022.5
20260906104845 63 304 3.0 6.0 0.00 0.00 0.00 73 1022.5
20260906104745 63 346 3.0 6.0 0.00 0.00 0.00 73 1022.6
20260906104645 63 346 3.0 8.0 0.00 0.00 0.00 73 1022.5
20260906104612 63 327 3.0 8.0 0.00 0.00 0.00 73 1022.5
20260906104538 63 0 3.0 8.0 0.00 0.00 0.00 73 1022.5
20260906104438 63 355 4.0 8.0 0.00 0.00 0.00 73 1022.5
20260906104338 63 355 4.0 8.0 0.00 0.00 0.00 73 1022.5
20260906104237 63 355 4.0 9.0 0.00 0.00 0.00 73 1022.6
20260906104217 63 350 4.0 9.0 0.00 0.00 0.00 73 1022.5
20260906104034 63 348 4.0 9.0 0.00 0.00 0.00 73 1022.5
20260906103934 63 355 4.0 9.0 0.00 0.00 0.00 73 1022.5
20260906103833 63 355 5.0 10.0 0.00 0.00 0.00 73 1022.5
20260906103731 63 0 5.0 10.0 0.00 0.00 0.00 73 1022.5
20260906103632 63 5 5.0 10.0 0.00 0.00 0.00 73 1022.5
20260906103611 63 314 5.0 10.0 0.00 0.00 0.00 73 1022.5
20260906103531 63 350 5.0 10.0 0.00 0.00 0.00 74 1022.5
20260906103431 63 350 5.0 10.0 0.00 0.00 0.00 73 1022.5
20260906103326 63 44 5.0 10.0 0.00 0.00 0.00 73 1022.5
20260906103225 63 345 5.0 10.0 0.00 0.00 0.00 73 1022.5
20260906103211 63 348 5.0 10.0 0.00 0.00 0.00 73 1022.4
20260906103026 63 342 5.0 10.0 0.00 0.00 0.00 73 1022.5
20260906102927 64 5 5.0 10.0 0.00 0.00 0.00 73 1022.4
20260906102727 64 355 5.0 10.0 0.00 0.00 0.00 73 1022.4
20260906102558 64 5 5.0 10.0 0.00 0.00 0.00 73 1022.4
20260906102520 64 0 4.0 10.0 0.00 0.00 0.00 73 1022.5
20260906102419 64 0 4.0 10.0 0.00 0.00 0.00 73 1022.4
20260906102314 64 9 4.0 9.0 0.00 0.00 0.00 72 1022.5
20260906102213 64 316 4.0 9.0 0.00 0.00 0.00 72 1022.4
20260906102113 64 0 4.0 9.0 0.00 0.00 0.00 72 1022.4
20260906102053 64 333 4.0 9.0 0.00 0.00 0.00 72 1022.4
20260906102013 64 0 4.0 9.0 0.00 0.00 0.00 72 1022.5
20260906101913 64 5 4.0 9.0 0.00 0.00 0.00 72 1022.4
20260906101809 64 340 4.0 9.0 0.00 0.00 0.00 71 1022.4
20260906101707 64 324 3.0 9.0 0.00 0.00 0.00 71 1022.4
20260906101608 64 344 3.0 9.0 0.00 0.00 0.00 70 1022.4
20260906101547 64 339 3.0 9.0 0.00 0.00 0.00 70 1022.4
20260906101507 64 348 3.0 6.0 0.00 0.00 0.00 70 1022.4
20260906101406 63 313 3.0 6.0 0.00 0.00 0.00 70 1022.4
20260906101303 63 329 3.0 6.0 0.00 0.00 0.00 69 1022.4
20260906101204 63 304 3.0 5.0 0.00 0.00 0.00 69 1022.4
20260906101147 63 333 3.0 8.0 0.00 0.00 0.00 67 1022.5
20260906101003 63 343 3.0 8.0 0.00 0.00 0.00 67 1022.5
20260906100901 63 329 3.0 8.0 0.00 0.00 0.00 66 1022.5
20260906100800 63 320 3.0 8.0 0.00 0.00 0.00 66 1022.4
20260906100659 63 5 3.0 8.0 0.00 0.00 0.00 65 1022.4
20260906100641 63 355 3.0 8.0 0.00 0.00 0.00 65 1022.4
20260906100457 63 355 3.0 8.0 0.00 0.00 0.00 64 1022.4
20260906100355 63 320 3.0 8.0 0.00 0.00 0.00 63 1022.4
20260906100250 63 351 3.0 8.0 0.00 0.00 0.00 63 1022.4
20260906100157 63 348 3.0 8.0 0.00 0.00 0.00 62 1022.4
20260906100029 63 0 3.0 6.0 0.00 0.00 0.00 61 1022.4
20260906095950 63 327 3.0 6.0 0.00 0.00 0.00 61 1022.4
20260906095849 63 348 3.0 6.0 0.00 0.00 0.00 61 1022.4
20260906095745 63 355 3.0 6.0 0.00 0.00 0.00 61 1022.3
20260906095644 63 304 3.0 6.0 0.00 0.00 0.00 60 1022.4
20260906095543 63 355 3.0 6.0 0.00 0.00 0.00 60 1022.4
20260906095522 63 319 3.0 6.0 0.00 0.00 0.00 60 1022.4
20260906095444 63 351 3.0 6.0 0.00 0.00 0.00 59 1022.4
20260906095344 63 13 3.0 5.0 0.00 0.00 0.00 59 1022.4
20260906095137 63 348 2.0 5.0 0.00 0.00 0.00 59 1022.4
20260906095017 63 334 2.0 5.0 0.00 0.00 0.00 58 1022.4
20260906094938 63 334 2.0 5.0 0.00 0.00 0.00 58 1022.4
20260906094837 63 0 2.0 5.0 0.00 0.00 0.00 58 1022.5
20260906094731 63 0 2.0 5.0 0.00 0.00 0.00 58 1022.5
20260906094631 63 0 2.0 4.0 0.00 0.00 0.00 58 1022.5
20260906094532 63 344 2.0 4.0 0.00 0.00 0.00 57 1022.6
20260906094511 63 0 2.0 4.0 0.00 0.00 0.00 57 1022.6
20260906094432 63 342 2.0 4.0 0.00 0.00 0.00 57 1022.5
20260906094331 63 333 2.0 4.0 0.00 0.00 0.00 57 1022.5
20260906094227 63 333 2.0 4.0 0.00 0.00 0.00 57 1022.5
20260906094128 63 333 2.0 4.0 0.00 0.00 0.00 57 1022.5
20260906094027 63 319 2.0 4.0 0.00 0.00 0.00 57 1022.4
20260906094011 63 11 2.0 4.0 0.00 0.00 0.00 57 1022.4
20260906093928 63 11 2.0 4.0 0.00 0.00 0.00 57 1022.5
20260906093825 63 11 2.0 3.0 0.00 0.00 0.00 57 1022.5
20260906093725 63 11 2.0 3.0 0.00 0.00 0.00 57 1022.5
20260906093623 64 11 1.0 3.0 0.00 0.00 0.00 57 1022.5
20260906093509 64 11 1.0 3.0 0.00 0.00 0.00 57 1022.5
20260906093421 64 11 1.0 3.0 0.00 0.00 0.00 57 1022.5
20260906093323 64 11 1.0 3.0 0.00 0.00 0.00 57 1022.4
20260906093113 64 11 1.0 3.0 0.00 0.00 0.00 57 1022.4
20260906093026 64 11 1.0 3.0 0.00 0.00 0.00 56 1022.4
20260906092708 64 11 1.0 3.0 0.00 0.00 0.00 56 1022.4
20260906092607 64 11 1.0 3.0 0.00 0.00 0.00 56 1022.4
20260906092507 64 11 1.0 3.0 0.00 0.00 0.00 56 1022.4
20260906092407 64 11 1.0 3.0 0.00 0.00 0.00 56 1022.4
20260906092307 64 11 1.0 2.0 0.00 0.00 0.00 55 1022.3
20260906092203 64 11 1.0 2.0 0.00 0.00 0.00 55 1022.3
20260906092105 64 11 1.0 2.0 0.00 0.00 0.00 55 1022.3
20260906091901 64 11 1.0 3.0 0.00 0.00 0.00 54 1022.3
20260906091759 65 11 1.0 3.0 0.00 0.00 0.00 54 1022.3
20260906091653 65 11 1.0 3.0 0.00 0.00 0.00 54 1022.3
20260906091553 65 11 1.0 3.0 0.00 0.00 0.00 54 1022.3
20260906091507 65 11 1.0 3.0 0.00 0.00 0.00 54 1022.3
20260906091454 65 11 1.0 3.0 0.00 0.00 0.00 54 1022.3
20260906091353 65 11 1.0 3.0 0.00 0.00 0.00 54 1022.3
20260906091253 65 11 1.0 3.0 0.00 0.00 0.00 54 1022.4
20260906091154 65 11 1.0 3.0 0.00 0.00 0.00 54 1022.3
20260906091052 65 11 1.0 3.0 0.00 0.00 0.00 54 1022.3
20260906091007 65 11 1.0 3.0 0.00 0.00 0.00 54 1022.3
20260906090951 65 11 1.0 3.0 0.00 0.00 0.00 54 1022.3
20260906090854 65 11 1.0 3.0 0.00 0.00 0.00 54 1022.2
20260906090641 65 11 2.0 4.0 0.00 0.00 0.00 54 1022.2
20260906090541 65 11 2.0 4.0 0.00 0.00 0.00 54 1022.0
20260906090506 65 11 2.0 4.0 0.00 0.00 0.00 54 1022.0
20260906090441 65 11 2.0 4.0 0.00 0.00 0.00 54 1022.0
20260906090343 66 11 2.0 4.0 0.00 0.00 0.00 54 1022.2
20260906090241 66 11 2.0 5.0 0.00 0.00 0.00 54 1022.0
20260906090135 66 11 2.0 5.0 0.00 0.00 0.00 54 1022.0
20260906090046 66 11 2.0 5.0 0.00 0.00 0.00 54 1022.0
20260906090039 66 11 2.0 5.0 0.00 0.00 0.00 53 1022.0
20260906085836 66 11 2.0 5.0 0.00 0.00 0.00 53 1022.2
20260906085735 66 336 2.0 5.0 0.00 0.00 0.00 53 1022.2
20260906085630 66 31 2.0 5.0 0.00 0.00 0.00 53 1022.2
20260906085529 66 31 2.0 5.0 0.00 0.00 0.00 53 1022.2
20260906085503 66 31 2.0 5.0 0.00 0.00 0.00 52 1022.2
20260906085430 66 36 2.0 5.0 0.00 0.00 0.00 52 1022.2
20260906085330 66 32 2.0 5.0 0.00 0.00 0.00 52 1022.2
20260906085230 66 28 2.0 4.0 0.00 0.00 0.00 52 1022.0
20260906085214 66 28 2.0 4.0 0.00 0.00 0.00 52 1022.2
20260906084926 67 44 3.0 5.0 0.00 0.00 0.00 51 1022.2
20260906084825 67 63 3.0 5.0 0.00 0.00 0.00 51 1022.0
20260906084723 67 74 3.0 5.0 0.00 0.00 0.00 50 1022.2
20260906084619 67 74 2.0 5.0 0.00 0.00 0.00 50 1022.0
20260906084608 67 74 2.0 5.0 0.00 0.00 0.00 50 1022.2
20260906084418 67 74 2.0 5.0 0.00 0.00 0.00 50 1022.2
20260906084318 67 74 2.0 5.0 0.00 0.00 0.00 50 1022.2
20260906084217 67 62 2.0 5.0 0.00 0.00 0.00 50 1022.2
20260906084111 67 56 1.0 5.0 0.00 0.00 0.00 50 1022.0
20260906084011 67 71 1.0 5.0 0.00 0.00 0.00 50 1022.2
20260906084000 67 60 1.0 4.0 0.00 0.00 0.00 50 1022.2
20260906083911 67 92 1.0 4.0 0.00 0.00 0.00 50 1022.2
20260906083812 67 78 1.0 4.0 0.00 0.00 0.00 49 1022.0
20260906083711 67 350 1.0 4.0 0.00 0.00 0.00 49 1021.9
20260906083612 67 350 1.0 4.0 0.00 0.00 0.00 49 1022.0
20260906083459 68 350 1.0 4.0 0.00 0.00 0.00 49 1022.0
20260906083406 68 350 2.0 4.0 0.00 0.00 0.00 49 1022.0
20260906083303 68 350 2.0 4.0 0.00 0.00 0.00 49 1021.9
20260906083203 68 350 2.0 4.0 0.00 0.00 0.00 48 1021.9
20260906083110 68 350 2.0 5.0 0.00 0.00 0.00 48 1021.9
20260906083103 68 350 3.0 6.0 0.00 0.00 0.00 48 1021.9
20260906082859 68 350 3.0 6.0 0.00 0.00 0.00 48 1021.9
20260906082800 68 349 3.0 6.0 0.00 0.00 0.00 48 1021.9
20260906082657 68 355 3.0 6.0 0.00 0.00 0.00 48 1021.9
20260906082551 68 332 3.0 6.0 0.00 0.00 0.00 48 1021.9
20260906082456 68 355 3.0 6.0 0.00 0.00 0.00 48 1021.8
20260906082451 68 334 3.0 6.0 0.00 0.00 0.00 48 1021.8
20260906082352 68 342 2.0 6.0 0.00 0.00 0.00 48 1021.8
20260906082258 68 327 2.0 6.0 0.00 0.00 0.00 48 1021.8
20260906082051 68 303 2.0 5.0 0.00 0.00 0.00 48 1021.9
20260906081951 68 333 2.0 4.0 0.00 0.00 0.00 48 1021.8
20260906081851 69 333 2.0 5.0 0.00 0.00 0.00 48 1021.8
20260906081756 69 333 2.0 5.0 0.00 0.00 0.00 48 1021.8
20260906081547 69 350 2.0 5.0 0.00 0.00 0.00 48 1021.8
20260906081448 69 350 2.0 6.0 0.00 0.00 0.00 47 1021.8
20260906081347 69 312 3.0 6.0 0.00 0.00 0.00 47 1021.7
20260906081246 69 318 3.0 7.0 0.00 0.00 0.00 47 1021.7
20260906081146 69 343 3.0 8.0 0.00 0.00 0.00 47 1021.8
20260906081046 69 341 4.0 8.0 0.00 0.00 0.00 47 1021.7
20260906080957 69 341 4.0 8.0 0.00 0.00 0.00 47 1021.7
20260906080944 69 326 4.0 8.0 0.00 0.00 0.00 47 1021.7
20260906080841 69 322 4.0 8.0 0.00 0.00 0.00 47 1021.7
20260906080742 69 340 5.0 8.0 0.00 0.00 0.00 47 1021.7
20260906080642 69 319 5.0 8.0 0.00 0.00 0.00 47 1021.7
20260906080541 69 334 5.0 8.0 0.00 0.00 0.00 47 1021.7
20260906080457 69 11 5.0 8.0 0.00 0.00 0.00 47 1021.7
20260906080441 69 315 5.0 8.0 0.00 0.00 0.00 47 1021.7
20260906080339 69 331 4.0 8.0 0.00 0.00 0.00 47 1021.7
20260906080239 69 331 4.0 8.0 0.00 0.00 0.00 47 1021.6
20260906080139 69 312 4.0 8.0 0.00 0.00 0.00 47 1021.6
20260906080037 69 334 4.0 8.0 0.00 0.00 0.00 47 1021.6
20260906075958 69 313 4.0 8.0 0.00 0.00 0.00 47 1021.6
20260906075938 69 335 3.0 8.0 0.00 0.00 0.00 47 1021.7
20260906075837 69 355 3.0 8.0 0.00 0.00 0.00 47 1021.7
20260906075737 69 307 3.0 8.0 0.00 0.00 0.00 47 1021.7
20260906075637 69 300 3.0 8.0 0.00 0.00 0.00 47 1021.7
20260906075538 69 293 3.0 8.0 0.00 0.00 0.00 47 1021.7
20260906075454 69 300 3.0 8.0 0.00 0.00 0.00 47 1021.7
20260906075438 69 328 3.0 8.0 0.00 0.00 0.00 47 1021.7
20260906075337 69 286 3.0 10.0 0.00 0.00 0.00 47 1021.7
20260906075244 70 347 3.0 10.0 0.00 0.00 0.00 48 1021.7
20260906075037 70 329 3.0 10.0 0.00 0.00 0.00 48 1021.6
20260906074953 70 311 3.0 10.0 0.00 0.00 0.00 48 1021.6
20260906074937 70 340 4.0 10.0 0.00 0.00 0.00 48 1021.7
20260906074836 70 323 4.0 10.0 0.00 0.00 0.00 47 1021.7
20260906074737 70 306 4.0 10.0 0.00 0.00 0.00 47 1021.6
20260906074707 70 280 4.0 10.0 0.00 0.00 0.00 47 1021.6
20260906074431 71 342 4.0 10.0 0.00 0.00 0.00 47 1021.7
20260906074331 71 322 5.0 9.0 0.00 0.00 0.00 47 1021.7
20260906074231 71 17 5.0 10.0 0.00 0.00 0.00 47 1021.7
20260906074127 71 20 5.0 10.0 0.00 0.00 0.00 47 1021.7
20260906074100 71 11 5.0 10.0 0.00 0.00 0.00 47 1021.7
20260906073925 71 341 6.0 10.0 0.00 0.00 0.00 47 1021.6
20260906073830 71 331 6.0 10.0 0.00 0.00 0.00 47 1021.7
20260906073629 71 294 6.0 10.0 0.00 0.00 0.00 47 1021.6
20260906073451 71 318 5.0 10.0 0.00 0.00 0.00 47 1021.6
20260906073423 71 297 5.0 10.0 0.00 0.00 0.00 47 1021.6
20260906073323 71 311 5.0 10.0 0.00 0.00 0.00 47 1021.6
20260906073223 71 300 5.0 8.0 0.00 0.00 0.00 47 1021.7
20260906073123 71 306 5.0 8.0 0.00 0.00 0.00 47 1021.6
20260906073024 71 313 5.0 8.0 0.00 0.00 0.00 47 1021.6
20260906072950 71 301 5.0 8.0 0.00 0.00 0.00 47 1021.6
20260906072923 71 300 4.0 8.0 0.00 0.00 0.00 47 1021.6
20260906072823 71 317 4.0 8.0 0.00 0.00 0.00 47 1021.6
20260906072723 71 313 4.0 8.0 0.00 0.00 0.00 48 1021.6
20260906072624 71 277 4.0 8.0 0.00 0.00 0.00 48 1021.6
20260906072558 71 317 4.0 7.0 0.00 0.00 0.00 49 1021.6
20260906072423 71 309 4.0 7.0 0.00 0.00 0.00 49 1021.7
20260906072323 71 310 4.0 7.0 0.00 0.00 0.00 49 1021.7
20260906072223 71 288 4.0 7.0 0.00 0.00 0.00 49 1021.7
20260906072141 71 333 4.0 7.0 0.00 0.00 0.00 49 1021.7
20260906072134 71 308 4.0 7.0 0.00 0.00 0.00 49 1021.7
20260906071828 71 319 4.0 7.0 0.00 0.00 0.00 49 1021.7
20260906071621 71 272 4.0 7.0 0.00 0.00 0.00 50 1021.6
20260906071557 71 278 4.0 7.0 0.00 0.00 0.00 50 1021.6
20260906071421 71 266 3.0 7.0 0.00 0.00 0.00 51 1021.6
20260906071322 70 288 3.0 7.0 0.00 0.00 0.00 51 1021.6
20260906071115 70 282 3.0 7.0 0.00 0.00 0.00 51 1021.7
20260906071015 70 284 3.0 7.0 0.00 0.00 0.00 50 1021.6
20260906070948 70 298 3.0 7.0 0.00 0.00 0.00 50 1021.6
20260906070922 70 317 3.0 7.0 0.00 0.00 0.00 50 1021.6
20260906070716 70 291 3.0 6.0 0.00 0.00 0.00 49 1021.7
20260906070616 71 314 3.0 6.0 0.00 0.00 0.00 49 1021.7
20260906070516 70 299 3.0 6.0 0.00 0.00 0.00 49 1021.7
20260906070447 71 321 3.0 6.0 0.00 0.00 0.00 49 1021.7
20260906070415 71 311 3.0 6.0 0.00 0.00 0.00 49 1021.6
20260906070313 70 274 3.0 6.0 0.00 0.00 0.00 49 1021.6
20260906070213 71 305 3.0 7.0 0.00 0.00 0.00 49 1021.6
20260906070113 71 271 4.0 7.0 0.00 0.00 0.00 49 1021.6
20260906070029 71 296 4.0 7.0 0.00 0.00 0.00 49 1021.7
20260906070023 71 296 4.0 7.0 0.00 0.00 0.00 49 1021.7
20260906065711 71 292 4.0 7.0 0.00 0.00 0.00 50 1021.7
20260906065611 70 293 4.0 7.0 0.00 0.00 0.00 50 1021.7
20260906065511 70 297 4.0 7.0 0.00 0.00 0.00 50 1021.7
20260906065446 70 313 4.0 7.0 0.00 0.00 0.00 50 1021.7
20260906065411 70 290 5.0 7.0 0.00 0.00 0.00 50 1021.7
20260906065311 70 300 4.0 7.0 0.00 0.00 0.00 50 1021.7
20260906065211 70 292 4.0 7.0 0.00 0.00 0.00 51 1021.8
20260906065111 70 292 4.0 7.0 0.00 0.00 0.00 51 1021.8
20260906065011 70 284 4.0 7.0 0.00 0.00 0.00 51 1021.8
20260906064945 70 308 4.0 7.0 0.00 0.00 0.00 51 1021.8
20260906064911 70 287 4.0 7.0 0.00 0.00 0.00 52 1021.7
20260906064811 69 274 4.0 7.0 0.00 0.00 0.00 51 1021.8
20260906064711 69 278 4.0 7.0 0.00 0.00 0.00 52 1021.8
20260906064657 69 294 3.0 7.0 0.00 0.00 0.00 51 1021.8
20260906064418 69 286 3.0 6.0 0.00 0.00 0.00 51 1021.8
20260906064211 69 294 3.0 6.0 0.00 0.00 0.00 51 1021.8
20260906064111 69 306 3.0 6.0 0.00 0.00 0.00 52 1021.7
20260906064011 69 294 2.0 6.0 0.00 0.00 0.00 52 1021.8
20260906063945 69 282 2.0 6.0 0.00 0.00 0.00 52 1021.8
20260906063911 69 285 2.0 6.0 0.00 0.00 0.00 52 1021.8
20260906063810 69 300 2.0 5.0 0.00 0.00 0.00 53 1021.9
20260906063709 69 288 2.0 5.0 0.00 0.00 0.00 53 1021.8
20260906063658 69 287 2.0 4.0 0.00 0.00 0.00 53 1021.9
20260906063409 69 276 1.0 4.0 0.00 0.00 0.00 53 1021.9
20260906063320 69 288 2.0 4.0 0.00 0.00 0.00 53 1021.9
20260906063007 69 266 2.0 6.0 0.00 0.00 0.00 52 1021.9
20260906062945 69 266 2.0 6.0 0.00 0.00 0.00 52 1021.9
20260906062903 69 266 2.0 6.0 0.00 0.00 0.00 52 1021.9
20260906062803 69 266 2.0 6.0 0.00 0.00 0.00 52 1022.0
20260906062703 69 265 2.0 6.0 0.00 0.00 0.00 52 1021.9
20260906062603 69 263 3.0 6.0 0.00 0.00 0.00 53 1022.0
20260906062503 69 257 3.0 6.0 0.00 0.00 0.00 53 1022.0
20260906062445 69 257 3.0 6.0 0.00 0.00 0.00 53 1022.0
20260906062402 69 277 3.0 6.0 0.00 0.00 0.00 53 1022.0
20260906062306 70 265 3.0 6.0 0.00 0.00 0.00 53 1021.9
20260906062203 70 281 3.0 6.0 0.00 0.00 0.00 54 1021.9
20260906062102 70 267 3.0 6.0 0.00 0.00 0.00 54 1022.0
20260906062014 70 257 3.0 5.0 0.00 0.00 0.00 53 1022.0
20260906062007 70 257 3.0 5.0 0.00 0.00 0.00 53 1022.0
20260906061803 70 257 3.0 5.0 0.00 0.00 0.00 53 1022.0
20260906061703 70 249 3.0 6.0 0.00 0.00 0.00 53 1021.9
20260906061603 70 230 3.0 6.0 0.00 0.00 0.00 53 1021.9
20260906061503 70 246 3.0 6.0 0.00 0.00 0.00 53 1022.0
20260906061446 70 246 3.0 6.0 0.00 0.00 0.00 53 1022.0
20260906061403 70 268 3.0 6.0 0.00 0.00 0.00 53 1021.9
20260906061303 70 239 3.0 7.0 0.00 0.00 0.00 53 1021.9
20260906061210 70 261 3.0 7.0 0.00 0.00 0.00 54 1021.9
20260906060959 70 221 3.0 7.0 0.00 0.00 0.00 54 1021.9
20260906060945 70 242 3.0 7.0 0.00 0.00 0.00 54 1021.9
20260906060859 70 222 3.0 7.0 0.00 0.00 0.00 54 1021.9
20260906060759 70 238 3.0 7.0 0.00 0.00 0.00 54 1021.9
20260906060659 70 204 3.0 7.0 0.00 0.00 0.00 54 1022.0
20260906060559 71 245 3.0 7.0 0.00 0.00 0.00 54 1022.0
20260906060459 71 250 3.0 7.0 0.00 0.00 0.00 54 1021.9
20260906060445 71 234 3.0 7.0 0.00 0.00 0.00 54 1021.9
20260906060359 71 248 3.0 7.0 0.00 0.00 0.00 53 1021.9
20260906060300 71 264 3.0 7.0 0.00 0.00 0.00 53 1022.0
20260906060159 71 244 3.0 8.0 0.00 0.00 0.00 54 1022.0
20260906060059 71 253 3.0 10.0 0.00 0.00 0.00 54 1021.9
20260906055945 71 228 4.0 10.0 0.00 0.00 0.00 53 1022.0
20260906055857 71 209 4.0 10.0 0.00 0.00 0.00 53 1022.0
20260906055753 71 246 4.0 10.0 0.00 0.00 0.00 53 1021.9
20260906055658 71 246 4.0 10.0 0.00 0.00 0.00 53 1021.9
20260906055451 71 215 4.0 10.0 0.00 0.00 0.00 54 1022.0
20260906055444 71 234 4.0 10.0 0.00 0.00 0.00 54 1022.0
20260906055351 71 204 3.0 10.0 0.00 0.00 0.00 53 1022.0
20260906055247 71 261 3.0 10.0 0.00 0.00 0.00 54 1022.0
20260906055148 71 236 2.0 10.0 0.00 0.00 0.00 54 1022.0
20260906055047 71 242 2.0 10.0 0.00 0.00 0.00 53 1022.0
20260906054947 71 220 2.0 10.0 0.00 0.00 0.00 51 1022.0
20260906054845 71 232 2.0 6.0 0.00 0.00 0.00 51 1021.9
20260906054744 72 233 2.0 7.0 0.00 0.00 0.00 51 1021.9
20260906054644 72 275 2.0 7.0 0.00 0.00 0.00 51 1021.8
20260906054544 72 275 2.0 7.0 0.00 0.00 0.00 51 1021.8
20260906054441 72 275 2.0 7.0 0.00 0.00 0.00 51 1021.8
20260906054339 72 275 3.0 7.0 0.00 0.00 0.00 51 1021.8
20260906054239 72 275 3.0 7.0 0.00 0.00 0.00 51 1021.8
20260906054140 72 275 3.0 7.0 0.00 0.00 0.00 51 1021.8
20260906054051 72 275 3.0 7.0 0.00 0.00 0.00 52 1021.8
20260906053940 72 252 3.0 7.0 0.00 0.00 0.00 52 1021.8
20260906053846 72 244 3.0 6.0 0.00 0.00 0.00 51 1021.9
20260906053640 72 267 3.0 6.0 0.00 0.00 0.00 49 1021.8
20260906053539 73 321 4.0 9.0 0.00 0.00 0.00 49 1021.8
20260906053444 73 290 4.0 9.0 0.00 0.00 0.00 49 1021.8
20260906053440 73 295 4.0 9.0 0.00 0.00 0.00 49 1021.7
20260906053338 73 327 4.0 9.0 0.00 0.00 0.00 50 1021.7
20260906053238 73 340 5.0 9.0 0.00 0.00 0.00 50 1021.7
20260906053135 73 350 5.0 9.0 0.00 0.00 0.00 50 1021.7
20260906053046 73 337 5.0 9.0 0.00 0.00 0.00 50 1021.7
20260906053039 73 350 5.0 9.0 0.00 0.00 0.00 49 1021.7
20260906052835 73 355 5.0 9.0 0.00 0.00 0.00 49 1021.8
20260906052736 73 339 5.0 9.0 0.00 0.00 0.00 49 1021.8
20260906052635 73 323 5.0 9.0 0.00 0.00 0.00 48 1021.9
20260906052441 73 297 5.0 9.0 0.00 0.00 0.00 47 1022.0
20260906052429 73 303 4.0 9.0 0.00 0.00 0.00 47 1022.0
20260906052329 73 336 4.0 9.0 0.00 0.00 0.00 48 1022.2
20260906052229 73 305 3.0 9.0 0.00 0.00 0.00 48 1022.3
20260906052129 72 311 3.0 9.0 0.00 0.00 0.00 48 1022.3
20260906052029 72 292 3.0 8.0 0.00 0.00 0.00 48 1022.4
20260906051941 73 300 3.0 7.0 0.00 0.00 0.00 49 1022.4
20260906051929 73 293 3.0 7.0 0.00 0.00 0.00 49 1022.4
20260906051829 73 313 2.0 7.0 0.00 0.00 0.00 48 1022.4
20260906051729 73 281 2.0 7.0 0.00 0.00 0.00 49 1022.5
20260906051629 73 279 2.0 7.0 0.00 0.00 0.00 49 1022.6
20260906051529 73 254 2.0 7.0 0.00 0.00 0.00 50 1022.6
20260906051436 73 292 2.0 7.0 0.00 0.00 0.00 48 1022.8
20260906051228 73 256 3.0 10.0 0.00 0.00 0.00 47 1022.8
20260906051125 73 256 3.0 10.0 0.00 0.00 0.00 47 1022.8
20260906051038 73 240 3.0 10.0 0.00 0.00 0.00 46 1022.8
20260906050923 73 240 3.0 10.0 0.00 0.00 0.00 45 1022.8
20260906050823 73 259 3.0 10.0 0.00 0.00 0.00 45 1022.8
20260906050723 73 209 3.0 10.0 0.00 0.00 0.00 44 1022.9
20260906050623 73 209 3.0 10.0 0.00 0.00 0.00 46 1022.9
20260906050524 73 196 3.0 10.0 0.00 0.00 0.00 47 1022.9
20260906050431 73 197 3.0 10.0 0.00 0.00 0.00 47 1022.9
20260906050423 73 196 3.0 10.0 0.00 0.00 0.00 47 1022.9
20260906050319 73 194 3.0 10.0 0.00 0.00 0.00 47 1023.0
20260906050217 73 187 3.0 8.0 0.00 0.00 0.00 48 1022.9
20260906050118 73 176 3.0 8.0 0.00 0.00 0.00 46 1023.0
20260906050017 73 184 3.0 8.0 0.00 0.00 0.00 45 1022.9
20260906045930 73 159 3.0 7.0 0.00 0.00 0.00 45 1022.9
20260906045917 73 146 3.0 6.0 0.00 0.00 0.00 44 1022.9
20260906045817 73 146 3.0 7.0 0.00 0.00 0.00 44 1022.9
20260906045717 73 138 3.0 7.0 0.00 0.00 0.00 43 1022.9
20260906045617 73 121 3.0 7.0 0.00 0.00 0.00 43 1022.9
20260906045516 74 114 4.0 9.0 0.00 0.00 0.00 42 1022.9
20260906045416 74 98 4.0 9.0 0.00 0.00 0.00 41 1022.9
20260906045315 74 111 4.0 9.0 0.00 0.00 0.00 41 1022.8
20260906045215 74 119 4.0 9.0 0.00 0.00 0.00 41 1022.9
20260906045115 74 118 4.0 9.0 0.00 0.00 0.00 41 1022.9
20260906045013 74 116 4.0 9.0 0.00 0.00 0.00 41 1022.9
20260906044928 74 106 4.0 9.0 0.00 0.00 0.00 41 1022.9
20260906044913 74 117 4.0 9.0 0.00 0.00 0.00 41 1022.9
20260906044820 74 119 4.0 9.0 0.00 0.00 0.00 41 1022.9
20260906044613 74 164 4.0 9.0 0.00 0.00 0.00 41 1022.9
20260906044525 74 144 4.0 9.0 0.00 0.00 0.00 41 1022.9
20260906044518 74 113 4.0 9.0 0.00 0.00 0.00 41 1022.8
20260906044313 74 140 4.0 9.0 0.00 0.00 0.00 40 1022.8
20260906044225 74 120 4.0 9.0 0.00 0.00 0.00 40 1022.8
20260906043911 74 113 3.0 7.0 0.00 0.00 0.00 39 1022.5
20260906043811 74 101 3.0 7.0 0.00 0.00 0.00 39 1022.4
20260906043709 74 78 2.0 7.0 0.00 0.00 0.00 39 1022.4
20260906043610 73 87 2.0 6.0 0.00 0.00 0.00 40 1022.4
20260906043520 73 94 2.0 6.0 0.00 0.00 0.00 40 1022.4
20260906043513 73 68 2.0 5.0 0.00 0.00 0.00 40 1022.3
20260906043309 73 78 1.0 4.0 0.00 0.00 0.00 39 1022.3
20260906043209 73 51 1.0 4.0 0.00 0.00 0.00 40 1022.3
20260906043107 73 51 1.0 4.0 0.00 0.00 0.00 40 1022.2
20260906043034 73 51 1.0 4.0 0.00 0.00 0.00 40 1022.0
20260906042907 73 51 1.0 4.0 0.00 0.00 0.00 40 1022.0
20260906042813 73 51 2.0 4.0 0.00 0.00 0.00 39 1022.0
20260906042605 73 51 1.0 4.0 0.00 0.00 0.00 39 1021.9
20260906042506 73 50 1.0 4.0 0.00 0.00 0.00 39 1021.9
20260906042406 73 5 1.0 4.0 0.00 0.00 0.00 39 1021.9
20260906042307 73 5 1.0 4.0 0.00 0.00 0.00 39 1021.9
20260906042205 73 5 1.0 4.0 0.00 0.00 0.00 39 1021.9
20260906042105 73 5 1.0 4.0 0.00 0.00 0.00 40 1021.9
20260906042021 73 5 1.0 4.0 0.00 0.00 0.00 39 1021.9
20260906042015 73 5 1.0 4.0 0.00 0.00 0.00 39 1021.9
20260906041703 73 5 2.0 4.0 0.00 0.00 0.00 40 1021.9
20260906041603 73 5 2.0 4.0 0.00 0.00 0.00 40 1021.9
20260906041514 73 5 2.0 4.0 0.00 0.00 0.00 39 1021.9
20260906041507 73 28 2.0 4.0 0.00 0.00 0.00 39 1021.9
20260906041310 73 28 2.0 7.0 0.00 0.00 0.00 39 1021.9
20260906041104 73 34 3.0 7.0 0.00 0.00 0.00 39 1021.9
20260906041000 73 36 3.0 7.0 0.00 0.00 0.00 39 1021.9
20260906040925 73 35 3.0 7.0 0.00 0.00 0.00 39 1021.9
20260906040900 74 5 3.0 7.0 0.00 0.00 0.00 39 1021.9
20260906040759 74 0 3.0 7.0 0.00 0.00 0.00 39 1021.9
20260906040659 73 355 3.0 7.0 0.00 0.00 0.00 39 1021.9
20260906040559 73 341 3.0 7.0 0.00 0.00 0.00 39 1022.0
20260906040500 73 341 2.0 7.0 0.00 0.00 0.00 39 1022.0
20260906040425 74 341 2.0 7.0 0.00 0.00 0.00 39 1022.2
20260906040359 73 341 2.0 7.0 0.00 0.00 0.00 39 1022.2
20260906040259 73 300 2.0 7.0 0.00 0.00 0.00 40 1022.2
20260906040159 73 308 2.0 4.0 0.00 0.00 0.00 40 1022.0
20260906040059 73 311 1.0 4.0 0.00 0.00 0.00 40 1021.9
20260906035959 74 311 1.0 4.0 0.00 0.00 0.00 40 1021.9
20260906035924 74 311 1.0 4.0 0.00 0.00 0.00 41 1021.9
20260906035859 74 311 1.0 4.0 0.00 0.00 0.00 41 1021.9
20260906035759 74 311 1.0 4.0 0.00 0.00 0.00 40 1021.8
20260906035706 74 66 1.0 2.0 0.00 0.00 0.00 40 1021.8
20260906035459 74 66 1.0 3.0 0.00 0.00 0.00 40 1021.7
20260906035425 74 66 1.0 3.0 0.00 0.00 0.00 40 1021.7
20260906035400 74 66 1.0 3.0 0.00 0.00 0.00 40 1021.7
20260906035300 74 66 1.0 3.0 0.00 0.00 0.00 40 1021.7
20260906035159 74 66 1.0 4.0 0.00 0.00 0.00 40 1021.7
20260906035055 74 66 2.0 6.0 0.00 0.00 0.00 40 1021.7
20260906034955 74 66 2.0 6.0 0.00 0.00 0.00 40 1021.6
20260906034924 74 66 2.0 6.0 0.00 0.00 0.00 40 1021.6
20260906034855 74 66 2.0 6.0 0.00 0.00 0.00 40 1021.6
20260906034802 74 66 3.0 6.0 0.00 0.00 0.00 40 1021.6
20260906034555 74 66 3.0 6.0 0.00 0.00 0.00 40 1021.6
20260906034455 74 66 3.0 7.0 0.00 0.00 0.00 40 1021.6
20260906034424 74 66 4.0 7.0 0.00 0.00 0.00 40 1021.6
20260906034355 74 66 4.0 7.0 0.00 0.00 0.00 39 1021.6
20260906034255 74 66 4.0 7.0 0.00 0.00 0.00 39 1021.6
20260906034201 74 65 4.0 8.0 0.00 0.00 0.00 40 1021.5
20260906033955 74 76 4.0 8.0 0.00 0.00 0.00 40 1021.5
20260906033924 74 71 5.0 8.0 0.00 0.00 0.00 40 1021.3
20260906033856 74 55 5.0 10.0 0.00 0.00 0.00 41 1021.3
20260906033755 74 56 5.0 10.0 0.00 0.00 0.00 40 1021.5
20260906033655 74 56 5.0 10.0 0.00 0.00 0.00 41 1021.5
20260906033601 74 33 5.0 10.0 0.00 0.00 0.00 40 1021.5
20260906033425 74 66 4.0 10.0 0.00 0.00 0.00 40 1021.3
20260906033356 74 42 4.0 10.0 0.00 0.00 0.00 40 1021.3
20260906033255 74 53 4.0 10.0 0.00 0.00 0.00 39 1021.3
20260906033152 74 76 4.0 10.0 0.00 0.00 0.00 38 1021.5
20260906033051 74 88 3.0 10.0 0.00 0.00 0.00 38 1021.5
20260906032951 74 65 3.0 10.0 0.00 0.00 0.00 38 1021.5
20260906032925 74 59 2.0 9.0 0.00 0.00 0.00 37 1021.3
20260906032858 74 49 2.0 8.0 0.00 0.00 0.00 37 1021.3
20260906032651 74 49 2.0 6.0 0.00 0.00 0.00 37 1021.3
20260906032551 74 63 1.0 4.0 0.00 0.00 0.00 37 1021.3
20260906032450 74 122 1.0 4.0 0.00 0.00 0.00 36 1021.2
20260906032421 74 122 1.0 4.0 0.00 0.00 0.00 36 1021.1
20260906032351 74 122 1.0 4.0 0.00 0.00 0.00 36 1021.1
20260906032251 74 159 1.0 4.0 0.00 0.00 0.00 36 1021.1
20260906032151 74 159 1.0 4.0 0.00 0.00 0.00 36 1021.1
20260906032050 74 175 1.0 4.0 0.00 0.00 0.00 36 1021.1
20260906031921 74 207 1.0 2.0 0.00 0.00 0.00 36 1021.1
20260906031851 74 207 1.0 2.0 0.00 0.00 0.00 36 1021.1
20260906031758 74 207 1.0 2.0 0.00 0.00 0.00 36 1021.1
20260906031552 74 200 1.0 3.0 0.00 0.00 0.00 35 1021.1
20260906031452 74 200 1.0 4.0 0.00 0.00 0.00 35 1021.1
20260906031420 74 200 1.0 4.0 0.00 0.00 0.00 35 1021.1
20260906031354 74 200 1.0 4.0 0.00 0.00 0.00 35 1021.1
20260906031147 75 200 2.0 4.0 0.00 0.00 0.00 35 1021.1
20260906031047 75 200 2.0 4.0 0.00 0.00 0.00 34 1021.1
20260906030921 75 200 2.0 4.0 0.00 0.00 0.00 34 1021.1
20260906030848 75 200 2.0 5.0 0.00 0.00 0.00 34 1021.1
20260906030747 75 200 3.0 6.0 0.00 0.00 0.00 34 1021.1
20260906030647 75 200 3.0 6.0 0.00 0.00 0.00 34 1021.1
20260906030553 76 200 3.0 6.0 0.00 0.00 0.00 34 1021.1
20260906030421 76 196 3.0 6.0 0.00 0.00 0.00 34 1021.0
20260906030347 76 196 3.0 6.0 0.00 0.00 0.00 34 1021.0
20260906030247 76 192 2.0 6.0 0.00 0.00 0.00 34 1020.9
20260906030147 76 183 2.0 6.0 0.00 0.00 0.00 33 1021.0
20260906030054 76 183 2.0 6.0 0.00 0.00 0.00 33 1021.0
20260906025921 76 172 2.0 6.0 0.00 0.00 0.00 33 1020.9
20260906025848 76 178 2.0 7.0 0.00 0.00 0.00 33 1020.9
20260906025747 76 177 2.0 7.0 0.00 0.00 0.00 33 1020.9
20260906025647 77 167 2.0 7.0 0.00 0.00 0.00 33 1020.9
20260906025554 77 165 2.0 7.0 0.00 0.00 0.00 33 1020.7
20260906025421 77 136 2.0 7.0 0.00 0.00 0.00 33 1020.7
20260906025343 77 136 2.0 7.0 0.00 0.00 0.00 33 1020.7
20260906025243 77 136 2.0 7.0 0.00 0.00 0.00 33 1020.7
20260906025207 77 136 3.0 8.0 0.00 0.00 0.00 33 1020.7
20260906025200 78 136 3.0 8.0 0.00 0.00 0.00 33 1020.7
20260906024743 78 180 2.0 8.0 0.00 0.00 0.00 33 1020.7
20260906024643 78 180 3.0 8.0 0.00 0.00 0.00 33 1020.6
20260906024543 78 233 3.0 8.0 0.00 0.00 0.00 33 1020.6
20260906024443 78 222 3.0 8.0 0.00 0.00 0.00 33 1020.6
20260906024421 78 221 3.0 8.0 0.00 0.00 0.00 33 1020.5
20260906024343 78 272 3.0 8.0 0.00 0.00 0.00 33 1020.5
20260906024242 78 260 3.0 8.0 0.00 0.00 0.00 33 1020.5
20260906024143 78 286 3.0 8.0 0.00 0.00 0.00 32 1020.5
20260906024043 78 333 3.0 8.0 0.00 0.00 0.00 33 1020.5
20260906023942 79 240 4.0 8.0 0.00 0.00 0.00 33 1020.5
20260906023921 79 240 4.0 8.0 0.00 0.00 0.00 33 1020.4
20260906023842 79 251 4.0 8.0 0.00 0.00 0.00 32 1020.4
20260906023743 79 304 4.0 8.0 0.00 0.00 0.00 32 1020.4
20260906023643 79 305 4.0 8.0 0.00 0.00 0.00 32 1020.3
20260906023544 79 269 4.0 9.0 0.00 0.00 0.00 31 1020.3
20260906023439 79 310 4.0 9.0 0.00 0.00 0.00 31 1020.3
20260906023421 79 319 4.0 9.0 0.00 0.00 0.00 31 1020.3
20260906023352 79 318 4.0 9.0 0.00 0.00 0.00 31 1020.3
20260906023039 79 298 4.0 9.0 0.00 0.00 0.00 31 1020.3
20260906022958 80 319 4.0 10.0 0.00 0.00 0.00 31 1020.3
20260906022950 80 289 4.0 10.0 0.00 0.00 0.00 31 1020.3
20260906022639 80 256 4.0 10.0 0.00 0.00 0.00 30 1020.3
20260906022539 80 303 4.0 10.0 0.00 0.00 0.00 30 1020.3
20260906022437 80 304 5.0 10.0 0.00 0.00 0.00 30 1020.3
20260906022421 80 287 5.0 10.0 0.00 0.00 0.00 30 1020.3
20260906022336 80 288 5.0 10.0 0.00 0.00 0.00 30 1020.3
20260906022241 80 279 5.0 10.0 0.00 0.00 0.00 30 1020.2
20260906022033 80 317 6.0 12.0 0.00 0.00 0.00 29 1020.3
20260906021931 80 306 6.0 12.0 0.00 0.00 0.00 30 1020.3
20260906021918 80 322 6.0 12.0 0.00 0.00 0.00 30 1020.3
20260906021832 80 294 6.0 12.0 0.00 0.00 0.00 29 1020.3
20260906021629 81 275 7.0 12.0 0.00 0.00 0.00 29 1020.2
20260906021436 81 321 7.0 12.0 0.00 0.00 0.00 29 1020.2
20260906021429 81 319 7.0 12.0 0.00 0.00 0.00 29 1020.2
20260906021117 81 306 8.0 12.0 0.00 0.00 0.00 29 1020.2
20260906021017 81 331 9.0 14.0 0.00 0.00 0.00 28 1020.3
20260906020926 81 283 9.0 14.0 0.00 0.00 0.00 28 1020.2
20260906020922 81 297 9.0 14.0 0.00 0.00 0.00 28 1020.2
20260906020711 81 296 8.0 14.0 0.00 0.00 0.00 28 1020.2
20260906020609 82 300 8.0 14.0 0.00 0.00 0.00 28 1020.2
20260906020509 82 329 8.0 14.0 0.00 0.00 0.00 28 1020.3
20260906020416 82 292 8.0 14.0 0.00 0.00 0.00 28 1020.3
20260906020409 82 317 8.0 14.0 0.00 0.00 0.00 28 1020.3
20260906020308 82 317 8.0 14.0 0.00 0.00 0.00 28 1020.3
20260906020210 82 301 8.0 14.0 0.00 0.00 0.00 28 1020.3
20260906020021 82 294 7.0 14.0 0.00 0.00 0.00 28 1020.3
20260906015908 82 270 7.0 14.0 0.00 0.00 0.00 29 1020.3
20260906015655 82 286 8.0 15.0 0.00 0.00 0.00 29 1020.3
20260906015555 82 275 9.0 15.0 0.00 0.00 0.00 29 1020.2
20260906015454 82 313 8.0 15.0 0.00 0.00 0.00 29 1020.2
20260906015415 82 301 9.0 15.0 0.00 0.00 0.00 29 1020.2
20260906015356 82 289 9.0 15.0 0.00 0.00 0.00 28 1020.2
20260906015254 82 315 8.0 15.0 0.00 0.00 0.00 28 1020.2
20260906015149 82 303 8.0 15.0 0.00 0.00 0.00 28 1020.2
20260906015049 81 273 8.0 15.0 0.00 0.00 0.00 28 1020.3
20260906014947 81 302 8.0 15.0 0.00 0.00 0.00 29 1020.3
20260906014912 81 333 8.0 15.0 0.00 0.00 0.00 29 1020.3
20260906014847 81 304 8.0 15.0 0.00 0.00 0.00 29 1020.3
20260906014746 81 315 8.0 15.0 0.00 0.00 0.00 29 1020.2
20260906014640 81 288 7.0 14.0 0.00 0.00 0.00 29 1020.2
20260906014541 81 317 7.0 14.0 0.00 0.00 0.00 29 1020.2
20260906014441 81 275 7.0 14.0 0.00 0.00 0.00 30 1020.0
20260906014412 81 277 7.0 13.0 0.00 0.00 0.00 30 1020.0
20260906014340 81 293 7.0 13.0 0.00 0.00 0.00 30 1020.0
20260906014240 81 277 6.0 13.0 0.00 0.00 0.00 30 1020.0
20260906014133 81 301 6.0 13.0 0.00 0.00 0.00 30 1020.0
20260906014032 81 316 6.0 13.0 0.00 0.00 0.00 29 1020.0
20260906013933 81 311 6.0 12.0 0.00 0.00 0.00 30 1020.0
20260906013912 81 300 6.0 12.0 0.00 0.00 0.00 30 1020.0
20260906013833 81 306 6.0 12.0 0.00 0.00 0.00 30 1020.0
20260906013733 81 279 6.0 12.0 0.00 0.00 0.00 30 1020.0
20260906013627 81 304 6.0 12.0 0.00 0.00 0.00 30 1020.0
20260906013527 81 284 6.0 12.0 0.00 0.00 0.00 30 1019.9
20260906013427 81 280 5.0 12.0 0.00 0.00 0.00 30 1019.9
20260906013405 81 322 5.0 12.0 0.00 0.00 0.00 30 1019.9
20260906013334 81 321 5.0 12.0 0.00 0.00 0.00 30 1020.0
20260906013127 81 306 5.0 12.0 0.00 0.00 0.00 30 1020.0
20260906013043 81 297 5.0 11.0 0.00 0.00 0.00 31 1019.9
20260906013036 81 298 5.0 11.0 0.00 0.00 0.00 30 1019.9
20260906012725 81 286 4.0 11.0 0.00 0.00 0.00 30 1019.9
20260906012624 81 333 5.0 9.0 0.00 0.00 0.00 30 1020.0
20260906012525 82 322 5.0 10.0 0.00 0.00 0.00 30 1019.9
20260906012434 82 272 6.0 11.0 0.00 0.00 0.00 30 1019.9
20260906012427 82 279 6.0 12.0 0.00 0.00 0.00 29 1019.9
20260906012222 82 308 7.0 13.0 0.00 0.00 0.00 29 1020.0
20260906012147 82 306 7.0 13.0 0.00 0.00 0.00 29 1020.0
20260906012034 82 281 8.0 13.0 0.00 0.00 0.00 29 1020.0
20260906011722 82 313 9.0 13.0 0.00 0.00 0.00 29 1020.0
20260906011622 82 298 9.0 13.0 0.00 0.00 0.00 29 1020.0
20260906011521 82 290 9.0 13.0 0.00 0.00 0.00 29 1020.0
20260906011416 82 304 10.0 13.0 0.00 0.00 0.00 28 1020.0
20260906011340 82 317 10.0 14.0 0.00 0.00 0.00 28 1020.0
20260906011316 82 304 10.0 14.0 0.00 0.00 0.00 28 1020.0
20260906011216 82 282 10.0 14.0 0.00 0.00 0.00 28 1020.0
20260906011116 82 310 9.0 14.0 0.00 0.00 0.00 28 1020.0
20260906011017 82 315 10.0 14.0 0.00 0.00 0.00 28 1020.0
20260906010921 82 302 9.0 14.0 0.00 0.00 0.00 28 1020.0
20260906010914 82 331 9.0 14.0 0.00 0.00 0.00 28 1020.0
20260906010710 82 315 9.0 14.0 0.00 0.00 0.00 28 1019.9
20260906010629 83 307 8.0 14.0 0.00 0.00 0.00 28 1020.0
20260906010622 83 317 8.0 14.0 0.00 0.00 0.00 28 1020.0
20260906010205 83 334 8.0 14.0 0.00 0.00 0.00 28 1020.0
20260906010105 83 317 8.0 14.0 0.00 0.00 0.00 28 1020.0
20260906010004 83 294 9.0 14.0 0.00 0.00 0.00 28 1020.2
20260906005900 83 306 9.0 17.0 0.00 0.00 0.00 28 1020.0
20260906005821 83 287 9.0 17.0 0.00 0.00 0.00 28 1020.0
20260906005800 83 313 9.0 17.0 0.00 0.00 0.00 28 1020.0
20260906005700 83 317 10.0 17.0 0.00 0.00 0.00 28 1020.0
20260906005600 83 281 10.0 17.0 0.00 0.00 0.00 28 1020.0
20260906005458 83 288 11.0 17.0 0.00 0.00 0.00 27 1020.0
20260906005353 83 309 11.0 17.0 0.00 0.00 0.00 27 1020.2
20260906005316 83 320 10.0 17.0 0.00 0.00 0.00 27 1020.2
20260906005252 83 306 10.0 17.0 0.00 0.00 0.00 27 1020.2
20260906005152 83 300 10.0 17.0 0.00 0.00 0.00 27 1020.0
20260906005052 83 301 10.0 17.0 0.00 0.00 0.00 27 1020.0
20260906004951 83 313 10.0 17.0 0.00 0.00 0.00 27 1020.0
20260906004846 83 298 10.0 16.0 0.00 0.00 0.00 27 1020.2
20260906004810 83 295 10.0 16.0 0.00 0.00 0.00 27 1020.0
20260906004746 83 297 10.0 16.0 0.00 0.00 0.00 27 1020.0
20260906004646 83 297 10.0 16.0 0.00 0.00 0.00 27 1020.0
20260906004546 84 309 10.0 16.0 0.00 0.00 0.00 27 1020.0
20260906004445 84 299 10.0 17.0 0.00 0.00 0.00 27 1020.0
20260906004340 84 323 10.0 17.0 0.00 0.00 0.00 27 1019.9
20260906004304 84 307 10.0 17.0 0.00 0.00 0.00 27 1020.0
20260906004240 84 306 10.0 17.0 0.00 0.00 0.00 27 1020.0
20260906004141 84 317 10.0 17.0 0.00 0.00 0.00 27 1020.0
20260906004040 84 306 10.0 17.0 0.00 0.00 0.00 27 1020.0
20260906003940 84 296 8.0 17.0 0.00 0.00 0.00 26 1020.0
20260906003834 84 298 8.0 17.0 0.00 0.00 0.00 26 1020.0
20260906003758 84 289 8.0 17.0 0.00 0.00 0.00 26 1020.0
20260906003734 84 321 7.0 17.0 0.00 0.00 0.00 26 1020.0
20260906003634 84 333 7.0 17.0 0.00 0.00 0.00 26 1020.0
20260906003534 84 311 6.0 17.0 0.00 0.00 0.00 25 1020.0
20260906003434 84 336 6.0 13.0 0.00 0.00 0.00 25 1020.0
20260906003358 84 334 5.0 13.0 0.00 0.00 0.00 26 1020.0
20260906003230 84 306 4.0 11.0 0.00 0.00 0.00 25 1020.0
20260906003130 84 316 4.0 11.0 0.00 0.00 0.00 25 1020.0
20260906003029 84 343 4.0 10.0 0.00 0.00 0.00 26 1020.0
20260906002928 84 5 4.0 10.0 0.00 0.00 0.00 25 1020.0
20260906002823 84 341 4.0 10.0 0.00 0.00 0.00 26 1020.0
20260906002746 84 355 4.0 9.0 0.00 0.00 0.00 26 1020.0
20260906002722 84 14 4.0 9.0 0.00 0.00 0.00 26 1020.0
20260906002622 84 27 4.0 9.0 0.00 0.00 0.00 26 1020.2
20260906002522 84 5 4.0 9.0 0.00 0.00 0.00 26 1020.0
20260906002422 84 336 4.0 9.0 0.00 0.00 0.00 26 1020.0
20260906002318 84 311 4.0 9.0 0.00 0.00 0.00 26 1020.0
20260906002218 84 334 4.0 9.0 0.00 0.00 0.00 26 1020.0
20260906002118 84 320 4.0 10.0 0.00 0.00 0.00 26 1020.0
20260906002019 84 355 4.0 10.0 0.00 0.00 0.00 26 1020.0
20260906001918 84 342 5.0 10.0 0.00 0.00 0.00 26 1020.0
20260906001733 84 338 5.0 10.0 0.00 0.00 0.00 26 1020.0
20260906001711 84 355 5.0 10.0 0.00 0.00 0.00 26 1020.0
20260906001618 84 5 5.0 12.0 0.00 0.00 0.00 26 1020.0
20260906001410 84 338 6.0 12.0 0.00 0.00 0.00 26 1020.0
20260906001304 85 9 6.0 12.0 0.00 0.00 0.00 26 1019.9
20260906001227 85 334 6.0 12.0 0.00 0.00 0.00 26 1020.0
20260906001204 85 347 6.0 12.0 0.00 0.00 0.00 26 1020.0
20260906001104 85 355 6.0 12.0 0.00 0.00 0.00 25 1020.0
20260906001011 85 355 6.0 12.0 0.00 0.00 0.00 26 1020.0
20260906000801 85 348 6.0 12.0 0.00 0.00 0.00 26 1020.0
20260906000721 85 344 6.0 12.0 0.00 0.00 0.00 26 1019.9
20260906000700 85 336 6.0 12.0 0.00 0.00 0.00 26 1019.9
20260906000558 85 347 5.0 12.0 0.00 0.00 0.00 26 1019.9
20260906000458 85 5 5.0 12.0 0.00 0.00 0.00 25 1020.0
20260906000358 85 340 5.0 12.0 0.00 0.00 0.00 25 1020.0
20260906000322 85 340 5.0 12.0 0.00 0.00 0.00 25 1019.9
20260906000152 86 323 4.0 12.0 0.00 0.00 0.00 26 1019.9
20260906000059 86 350 4.0 9.0 0.00 0.00 0.00 26 1020.0
20260905235907 86 355 4.0 9.0 0.00 0.00 0.00 25 1019.9
20260905235900 86 345 3.0 8.0 0.00 0.00 0.00 26 1019.9
20260905235554 86 343 3.0 8.0 0.00 0.00 0.00 26 1019.9
20260905235345 86 28 3.0 5.0 0.00 0.00 0.00 25 1019.9
20260905235311 86 13 2.0 5.0 0.00 0.00 0.00 24 1019.9
20260905235140 86 36 2.0 5.0 0.00 0.00 0.00 26 1019.9
20260905235041 86 20 2.0 5.0 0.00 0.00 0.00 26 1019.9
20260905234940 86 5 2.0 5.0 0.00 0.00 0.00 26 1019.9